GFSWCAN_925_thetae_000.txt.gz
Theta_e
309 308 308 308 308 308 308 308 308 309 311 313 314 317 319 316 316 319 321 324 317 315 317 319 316 314 314 313 314 314 313 310 303 306 303 303 302 308 309 310 311 311 306 304 300 299 307 305 310 311 310 307 309 307
309 308 308 308 308 308 308 308 308 308 309 311 313 315 320 320 319 318 322 320 318 314 315 317 317 317 317 313 313 310 314 312 309 306 297 304 308 308 302 310 308 311 307 306 305 306 305 305 308 308 307 307 308 307
308 308 308 308 309 308 308 308 308 308 308 310 312 318 321 319 320 318 322 319 317 308 312 314 317 317 318 317 317 314 308 311 308 303 300 298 303 303 308 308 308 309 306 306 308 309 307 307 306 307 308 307 308 306
308 308 309 309 309 309 309 309 308 308 308 309 312 318 319 320 321 322 319 315 314 304 307 312 316 316 317 320 317 314 311 308 303 302 301 305 301 303 300 305 305 307 309 309 307 309 308 308 308 308 309 308 307 306
309 309 309 309 309 309 309 309 309 308 308 308 312 317 318 320 320 320 320 318 316 310 309 306 312 314 316 317 316 315 311 309 306 303 301 305 297 303 303 303 305 307 309 308 308 308 308 307 307 309 309 308 307 305
309 309 309 309 309 309 309 309 309 309 308 308 309 315 317 316 314 311 308 319 316 314 309 311 306 308 313 315 315 313 312 307 307 307 301 301 304 304 309 308 309 308 308 307 308 308 306 306 308 308 308 307 305 301
309 309 309 309 309 309 309 309 309 310 310 309 308 309 313 314 310 308 306 315 318 313 306 308 306 304 307 310 306 308 309 308 307 304 302 299 304 305 306 306 310 309 309 309 308 310 310 309 310 307 306 302 296 294
309 309 309 309 309 309 309 309 309 310 311 313 314 314 314 315 315 314 315 317 316 310 302 305 305 304 307 305 307 304 304 307 306 305 304 304 304 304 311 309 309 309 309 309 309 307 308 307 299 294 294 294 294 294
307 308 308 309 309 309 309 309 310 311 311 312 314 313 310 311 310 312 314 315 315 310 305 305 308 310 304 304 301 303 305 306 305 309 306 308 305 311 309 305 306 306 307 307 305 305 302 297 295 295 295 295 295 293
302 305 306 307 308 309 308 309 310 311 310 310 310 308 306 308 309 311 311 304 302 301 304 304 303 309 310 301 304 304 301 308 313 308 306 308 309 304 300 300 300 301 303 306 305 300 296 296 296 297 296 294 293 294
303 304 305 305 306 307 308 309 310 310 310 309 303 303 309 309 308 300 303 304 307 309 305 304 302 306 303 309 308 301 305 304 311 306 312 309 308 300 295 295 296 297 297 297 297 297 298 298 297 296 295 294 297 298
302 302 303 305 306 307 307 309 310 309 308 308 307 307 307 301 302 305 305 304 307 308 303 306 304 305 302 302 306 303 308 304 312 303 308 309 300 295 296 297 298 298 296 296 296 296 296 296 297 297 296 295 293 292
300 301 301 301 303 306 307 308 308 308 306 306 302 299 304 301 309 310 311 309 307 301 300 300 305 299 301 302 303 304 309 309 301 307 309 303 300 302 301 298 295 295 295 296 296 296 295 291 291 291 291 291 291 290
300 300 300 300 300 301 303 305 305 305 305 300 303 306 304 305 302 301 302 302 298 297 298 298 300 302 298 303 302 308 303 302 308 304 300 302 301 300 294 293 293 292 293 294 291 291 291 291 291 291 291 291 291 291
299 299 299 299 300 300 301 301 302 301 298 297 298 301 299 296 297 296 296 297 296 296 297 299 299 301 301 303 301 301 301 301 297 295 302 299 299 298 292 291 291 291 289 291 292 292 292 292 292 292 293 292 292 292
298 298 298 298 299 300 300 300 299 298 295 295 296 298 297 299 299 298 297 298 297 296 296 298 301 302 301 301 300 299 298 298 300 300 298 297 297 294 294 293 293 295 295 295 293 293 293 292 292 292 292 292 292 292
296 295 296 297 298 299 300 299 298 292 293 297 297 295 296 298 298 297 296 298 296 297 300 297 300 300 297 298 300 301 301 300 299 298 296 297 297 294 294 295 294 293 293 293 293 292 292 291 291 291 290 291 292 292
294 294 296 296 298 298 298 298 292 293 297 295 297 296 295 295 296 296 294 293 293 297 296 295 296 293 292 295 294 298 297 292 292 292 292 292 293 293 293 293 292 292 292 292 292 291 291 291 289 287 288 288 289 289
294 294 295 295 297 297 292 295 293 292 294 294 293 292 293 293 291 292 292 293 291 289 289 287 290 292 292 291 291 298 295 295 291 290 288 292 292 293 293 293 292 291 290 289 288 287 287 287 285 284 284 284 285 286
293 293 293 295 296 296 292 291 295 292 295 293 292 293 292 292 291 292 293 293 291 289 291 291 290 289 289 286 285 286 293 292 286 285 286 287 290 290 289 289 288 288 286 286 285 284 284 283 282 282 280 280 281 282
292 292 293 294 294 295 289 290 292 292 293 293 291 291 291 291 292 293 294 292 296 296 291 287 281 283 288 288 290 290 290 290 287 285 286 288 286 286 284 283 283 282 282 281 281 281 279 279 277 276 275 276 276 277
292 292 292 292 292 292 290 291 292 290 292 292 292 292 292 292 292 292 291 293 294 292 290 287 287 290 291 288 287 288 288 287 287 286 286 286 284 283 280 278 278 278 278 277 276 274 273 273 273 273 273 273 274 274
292 292 292 292 285 284 289 292 293 289 293 291 293 294 293 292 290 289 292 292 291 290 290 290 288 287 286 285 284 284 284 282 282 281 282 281 280 278 276 274 273 272 272 273 272 272 271 271 271 271 271 272 272 272
292 291 286 287 286 285 290 291 291 292 291 287 287 291 290 290 288 290 292 291 291 289 289 289 287 286 284 283 282 281 281 281 280 279 280 280 278 276 274 273 271 270 269 269 270 269 269 269 269 270 270 270 270 269
284 288 287 289 290 282 288 288 290 291 291 281 292 284 288 283 289 289 290 287 287 287 286 287 287 286 283 281 280 278 279 280 278 276 274 274 274 273 272 271 270 269 268 267 267 267 267 268 268 268 269 269 269 269
286 287 290 289 289 290 281 284 286 291 288 285 284 284 280 282 284 287 287 284 286 284 284 284 284 282 281 280 279 277 275 277 276 273 271 271 270 269 267 266 266 267 266 266 265 266 266 266 267 268 268 269 269 269
287 285 286 288 289 288 285 283 284 288 288 290 287 287 289 288 288 286 284 281 282 279 281 281 281 279 277 274 274 274 275 276 275 272 270 269 268 268 267 266 265 265 265 266 266 266 266 266 266 267 268 268 268 267
285 289 287 282 288 287 290 285 286 290 291 289 287 289 289 287 284 281 280 279 278 278 277 277 276 275 273 272 273 274 273 272 271 270 269 268 268 267 266 266 265 265 265 266 266 266 266 266 266 267 267 267 266 265
288 286 287 286 285 286 287 287 287 288 288 288 288 285 281 277 273 273 275 277 277 277 274 273 272 273 273 272 271 271 271 271 271 262 261 257 266 267 266 265 265 265 265 265 265 265 266 266 266 266 265 265 264 264
287 281 283 279 286 286 287 282 284 282 283 281 280 278 275 272 272 273 275 275 274 272 272 272 272 273 271 271 270 269 269 268 268 268 260 258 265 265 265 265 264 264 264 264 264 265 265 265 265 265 264 264 263 262
287 288 288 286 285 287 284 287 287 287 285 279 277 276 273 269 272 272 272 272 272 271 271 271 270 270 270 269 269 269 268 267 267 266 266 266 265 265 264 264 264 263 263 263 263 263 264 264 263 263 262 262 261 261
286 285 282 283 281 278 277 278 274 277 280 282 276 271 265 267 266 269 270 271 270 270 269 269 269 269 268 268 268 267 266 266 266 265 265 265 265 264 264 263 263 263 262 262 262 262 262 262 262 261 261 260 260 259
273 273 273 275 280 280 271 269 268 272 277 278 269 267 265 267 268 269 270 270 270 269 269 268 268 268 267 267 266 266 265 265 265 265 265 264 264 264 263 263 263 262 262 262 262 261 261 261 261 260 260 259 259 259

GFSWCAN_925_thetae_003.txt.gz
Theta_e
308 309 308 307 306 307 308 309 310 311 312 313 314 315 315 316 316 319 321 322 319 316 316 318 314 314 314 315 319 316 317 314 309 313 314 312 314 313 313 311 313 315 314 311 304 309 314 305 311 316 316 309 310 310
308 307 307 307 308 308 309 310 311 311 312 313 316 316 315 315 317 319 321 322 320 316 316 316 316 316 316 313 315 311 317 314 313 312 306 306 312 309 307 318 309 314 312 314 311 314 308 306 312 309 308 310 311 310
308 307 308 308 308 308 309 309 310 311 312 316 318 319 315 315 316 319 320 318 317 312 315 316 317 316 316 316 316 317 309 311 309 305 305 305 311 307 314 312 311 310 306 311 311 310 308 308 308 308 308 310 309 309
308 308 308 308 308 308 308 308 308 310 314 318 319 320 319 317 318 318 321 318 314 308 310 315 315 314 316 318 315 313 310 307 304 305 305 306 310 305 307 310 311 311 309 310 311 310 309 309 309 311 310 308 309 309
308 309 309 309 309 309 309 308 308 309 314 317 319 321 321 321 318 316 317 315 313 315 312 310 311 312 313 313 312 311 310 309 308 308 306 311 303 306 304 306 310 309 312 314 316 312 311 311 308 308 310 311 311 310
309 309 309 309 309 309 309 309 309 309 312 317 318 319 320 320 319 318 313 318 314 314 311 314 306 308 312 313 312 311 310 308 309 311 307 304 304 308 311 313 311 308 308 309 312 309 308 309 307 309 311 311 309 307
309 309 309 309 309 309 309 309 309 308 308 311 314 314 313 311 310 308 309 314 314 312 308 310 309 306 306 308 306 309 309 308 310 307 305 305 307 307 306 313 312 309 309 309 309 309 312 310 313 307 305 297 295 294
309 309 309 308 309 309 309 310 311 313 313 314 314 314 313 313 315 315 313 314 313 309 304 308 307 307 306 308 308 305 307 309 308 307 304 306 306 307 313 309 306 306 307 309 309 308 309 301 297 296 295 295 296 297
309 309 308 308 309 309 309 310 311 313 313 313 311 309 309 311 310 313 313 314 313 309 306 303 310 312 305 305 303 306 306 309 305 309 308 310 306 311 304 301 302 301 303 305 301 298 297 296 295 296 296 296 296 296
307 308 308 309 309 309 309 310 310 310 311 310 310 308 306 309 310 309 310 305 304 302 305 304 304 309 309 303 305 306 304 306 312 310 307 309 310 299 295 296 297 298 298 303 305 299 298 297 296 296 296 296 296 296
304 304 305 307 308 309 309 310 310 310 310 310 304 305 309 308 307 300 303 305 306 306 306 304 304 309 304 311 309 303 306 305 312 309 312 311 307 298 297 298 297 296 297 298 298 298 298 297 297 296 296 296 297 297
302 304 306 306 307 308 309 310 310 310 308 308 308 307 306 302 302 305 305 305 304 307 303 306 305 306 303 304 307 304 309 306 313 305 309 311 299 295 298 297 297 297 298 298 298 298 297 297 297 297 297 297 295 293
301 301 301 303 306 307 308 309 310 309 308 307 303 300 305 302 306 303 311 309 308 302 301 301 305 300 302 302 303 306 311 312 303 309 310 302 297 300 298 296 296 296 297 297 296 296 294 292 291 291 290 290 290 290
299 299 300 301 301 303 305 306 305 305 307 298 302 305 303 307 303 303 304 303 298 298 299 300 301 303 299 304 302 311 303 303 309 310 305 299 301 297 296 295 297 297 294 292 291 290 291 291 291 291 291 291 291 291
298 298 299 299 300 301 303 304 302 301 298 298 299 300 300 297 297 297 296 297 296 296 298 301 300 302 302 303 301 303 304 304 301 302 303 298 296 294 292 292 292 292 288 290 292 292 292 292 291 291 291 291 291 291
298 297 297 298 299 300 299 300 299 298 295 296 297 299 297 299 299 298 298 298 297 296 296 299 301 303 302 302 303 303 303 301 301 300 298 297 296 296 295 293 293 294 294 294 293 292 292 291 290 290 290 290 289 289
296 295 296 297 299 299 300 299 297 294 296 297 298 295 297 298 299 297 297 297 296 298 301 299 303 301 299 300 301 301 301 300 299 298 298 297 296 295 294 294 293 292 292 291 291 291 289 289 288 287 286 285 285 286
294 294 295 296 298 299 298 297 292 295 297 295 297 295 295 295 297 296 295 294 296 298 297 298 297 298 295 297 299 298 296 295 294 295 296 294 293 292 292 292 291 291 289 288 288 287 286 285 285 284 283 282 283 283
293 293 294 296 298 298 293 294 292 294 294 294 293 292 293 293 291 292 293 292 290 288 292 290 292 295 296 293 295 293 295 295 293 292 290 289 290 291 291 290 289 287 286 286 285 285 284 283 282 280 278 278 278 279
291 292 292 296 297 296 293 292 293 293 295 294 292 293 292 292 291 292 294 294 293 291 292 293 292 291 291 290 288 290 294 294 292 291 290 289 288 286 286 286 286 285 284 283 281 279 279 279 277 275 274 274 274 275
291 291 292 294 295 293 291 291 291 292 293 294 291 292 292 291 293 293 293 292 296 296 294 290 289 290 288 288 287 289 290 289 289 290 290 288 284 282 281 281 281 280 279 278 276 274 273 274 273 272 272 272 272 272
292 292 291 291 289 290 290 291 292 289 294 292 291 292 293 293 293 293 291 294 294 292 292 291 291 291 290 288 287 286 286 286 286 285 284 284 284 281 277 276 276 276 275 274 273 271 271 271 270 270 270 270 271 271
292 292 291 289 286 285 290 291 292 290 287 286 287 289 289 292 290 289 292 293 292 290 290 289 287 286 285 284 283 283 283 283 282 281 281 279 277 275 274 272 271 271 272 270 270 270 269 269 269 269 269 270 269 269
291 289 282 280 281 286 289 290 291 291 292 290 289 285 286 284 285 288 289 289 290 288 289 288 285 284 283 282 281 281 282 280 278 277 279 278 276 274 273 271 269 268 267 267 267 268 268 268 268 268 268 268 268 268
284 288 283 286 283 281 287 288 290 291 291 290 288 282 287 286 285 283 284 286 285 285 285 286 285 283 282 280 279 278 278 279 277 275 273 273 272 271 270 269 268 267 266 266 265 266 267 267 267 267 267 267 266 267
283 290 289 289 288 289 284 285 287 290 290 284 284 282 282 286 285 285 285 282 284 283 283 283 282 280 279 279 278 276 275 275 275 272 270 270 269 269 267 267 266 266 266 265 265 265 265 265 266 266 267 267 267 266
283 290 288 288 289 288 282 280 283 286 284 284 286 286 285 289 287 284 283 279 280 277 277 279 279 278 276 274 272 272 274 275 274 272 269 269 268 267 267 265 264 265 265 265 265 265 265 265 265 266 266 266 266 265
288 290 287 282 285 285 285 283 283 287 289 289 288 286 287 285 286 279 278 277 276 276 275 275 274 273 272 272 272 272 272 271 271 270 269 268 268 267 266 265 265 264 265 265 265 265 265 265 265 265 265 265 264 263
285 283 283 283 282 284 285 285 285 285 286 285 284 282 280 276 272 272 274 275 275 275 273 272 271 272 271 271 271 271 271 270 270 265 264 265 265 266 265 265 264 264 264 264 264 264 265 265 265 265 264 264 263 262
283 283 282 279 285 284 286 283 287 280 281 280 279 277 274 272 271 272 273 274 273 271 271 271 271 272 270 271 269 269 269 268 268 267 265 264 265 265 264 264 264 263 263 263 263 264 264 264 264 264 263 263 262 261
285 286 288 286 287 286 285 283 287 286 279 275 275 274 273 270 271 270 271 271 271 271 271 270 270 270 270 269 268 268 268 266 266 265 265 265 265 264 264 264 263 263 263 263 262 262 263 262 262 262 261 261 260 260
276 279 278 282 280 276 274 272 276 279 280 280 272 270 268 268 268 269 270 270 270 269 269 269 269 268 268 268 267 267 266 266 265 265 265 265 264 264 264 263 263 263 262 262 262 262 262 261 261 260 260 259 259 258
274 273 275 275 281 282 273 270 268 271 273 275 269 266 266 268 269 268 269 270 269 269 268 268 268 268 267 267 266 266 265 265 265 265 265 264 264 264 263 263 263 262 262 262 261 261 261 260 260 260 259 259 258 258

GFSWCAN_925_thetae_006.txt.gz
Theta_e
300 300 303 305 304 306 308 309 307 307 307 308 309 311 314 315 314 319 322 318 325 325 320 319 319 321 321 325 329 322 323 321 321 330 334 326 331 321 319 317 320 321 323 324 316 327 326 310 314 319 317 318 316 316
300 303 307 309 309 308 307 306 307 308 309 310 311 313 314 315 314 319 324 320 320 324 323 319 318 317 320 322 324 322 326 324 325 327 324 322 321 316 321 326 315 320 320 321 318 318 314 312 317 316 315 316 316 316
306 307 307 306 307 308 309 310 311 311 312 313 314 314 315 315 314 318 322 318 321 324 321 322 322 318 316 317 318 324 320 320 319 317 322 322 323 320 323 323 320 316 312 318 316 315 314 313 313 313 313 314 314 314
307 308 308 308 309 310 310 310 311 312 314 316 315 315 315 315 315 317 320 317 320 322 321 323 316 317 314 316 317 318 318 314 313 317 322 316 325 315 322 319 322 317 314 317 317 315 315 314 314 314 314 314 315 315
308 308 308 308 308 309 310 312 315 316 318 318 317 315 315 315 315 317 317 317 316 323 323 324 316 314 314 315 315 315 316 318 320 321 319 326 315 317 312 315 320 314 317 319 319 314 316 315 314 313 315 315 315 315
308 308 309 309 309 309 309 312 315 316 319 319 318 315 315 316 316 318 319 316 313 315 325 328 314 316 314 316 316 316 317 318 319 323 322 314 310 318 318 322 317 314 313 314 315 313 313 314 314 314 315 311 310 309
309 309 309 309 310 310 309 310 313 316 317 318 318 317 316 317 315 318 319 314 312 312 323 324 323 314 311 315 313 318 317 318 321 319 316 318 316 316 313 324 315 311 311 313 313 314 316 313 312 306 304 301 300 300
308 308 309 309 310 312 312 312 313 313 313 313 313 313 312 315 316 316 312 312 310 313 319 321 319 321 312 318 316 311 315 319 314 312 309 313 311 315 321 313 308 307 308 312 307 309 310 304 301 300 301 302 302 299
308 308 308 309 310 311 311 313 312 311 310 310 309 310 311 313 318 316 312 311 310 316 320 321 324 323 311 309 310 312 314 315 310 314 313 316 312 317 307 304 305 305 305 306 304 304 302 300 299 298 299 298 298 297
309 308 308 308 310 310 310 311 312 311 309 309 309 312 316 310 309 309 311 317 316 313 311 308 308 315 313 310 311 313 314 313 318 315 311 316 312 300 299 300 301 302 304 308 308 304 301 300 300 299 298 297 297 297
306 307 308 309 309 310 310 310 310 310 309 310 313 313 310 308 310 310 312 314 314 316 310 308 309 313 309 315 313 309 311 312 316 316 315 316 311 302 301 300 300 301 301 302 301 301 300 299 298 299 298 298 298 298
306 306 307 308 309 310 310 310 310 310 310 311 311 308 306 309 311 310 310 310 313 314 308 312 309 310 308 308 313 309 313 310 315 310 315 315 303 298 299 299 299 300 301 301 300 299 299 299 299 299 298 296 292 291
303 304 305 305 306 309 310 310 308 307 307 307 307 306 311 307 312 318 313 312 312 305 303 304 307 307 308 309 308 313 318 315 309 313 313 306 300 299 298 298 299 299 299 299 299 297 294 293 292 291 292 290 291 292
301 303 304 304 304 304 306 307 306 308 307 304 307 310 309 311 308 305 307 306 300 300 303 305 304 310 303 310 307 319 305 306 311 313 311 301 301 300 299 300 300 299 296 294 294 293 292 291 290 290 290 290 290 290
298 300 301 302 303 304 305 304 303 304 300 302 304 305 303 299 299 298 297 299 298 298 302 306 305 307 305 307 304 305 308 311 309 310 304 300 297 300 299 298 297 298 293 294 296 293 291 291 291 291 289 289 289 288
297 298 298 299 299 300 303 305 302 299 296 299 299 302 299 301 301 299 299 299 298 298 300 302 303 306 305 307 308 310 310 309 306 303 299 297 297 298 296 296 296 296 295 296 293 292 291 289 289 289 287 286 286 286
294 294 297 298 299 298 299 298 297 297 298 300 300 296 297 298 299 297 296 297 296 299 302 304 309 306 303 307 307 305 307 305 300 299 298 299 299 299 299 297 294 294 294 293 291 290 288 287 286 286 286 284 284 284
293 294 296 298 298 298 296 295 298 298 298 297 300 297 297 296 298 297 296 296 300 301 301 302 301 304 307 306 306 303 300 299 298 299 299 296 295 295 295 294 293 292 290 288 287 286 286 286 285 284 282 281 281 282
291 293 296 297 298 298 298 296 297 298 296 296 296 295 296 296 295 294 295 295 295 296 299 300 306 304 304 302 300 297 297 298 298 295 294 292 293 293 292 290 289 288 287 286 286 285 284 281 280 280 279 279 279 279
291 291 294 296 298 297 297 296 296 297 297 295 295 295 295 295 294 296 297 297 299 300 302 302 301 299 299 297 296 299 300 298 298 297 293 290 289 288 289 288 287 286 285 283 280 280 281 280 278 277 276 276 276 276
291 291 292 294 294 294 293 295 296 296 295 295 294 295 296 296 297 297 297 295 301 299 299 294 294 292 290 290 291 293 293 295 298 298 295 289 286 286 285 284 283 282 282 281 280 278 277 277 275 274 274 275 274 275
291 291 291 292 293 293 294 292 295 294 296 296 296 296 297 299 298 297 295 298 297 295 294 293 293 293 291 289 288 288 288 288 288 286 285 285 285 282 280 280 281 279 278 277 277 276 275 273 272 272 273 272 273 273
291 291 290 290 292 293 292 293 294 293 295 295 295 296 296 296 295 293 295 296 294 292 291 290 287 287 286 285 284 284 284 285 284 283 281 280 279 278 277 276 275 276 276 274 273 272 272 270 271 270 271 271 272 272
289 288 289 291 291 290 291 291 291 292 293 293 293 295 295 294 293 295 295 292 289 288 289 288 287 286 285 283 282 282 282 281 281 281 280 280 278 276 275 273 272 271 270 270 270 270 270 270 269 270 270 270 271 271
291 290 290 290 290 290 290 290 291 293 293 292 293 294 293 291 294 292 291 288 287 287 287 286 285 284 284 282 280 279 278 280 279 277 275 276 275 274 273 272 271 269 268 269 269 269 269 268 268 269 269 269 269 269
291 291 291 290 291 292 290 292 291 292 292 292 292 290 291 293 292 290 287 285 285 284 283 285 284 282 280 279 279 278 276 276 276 274 272 272 272 273 272 273 272 271 267 267 267 267 267 267 267 267 268 269 269 267
291 291 290 289 290 290 291 289 289 291 292 293 293 292 293 292 291 287 284 280 282 278 277 277 279 280 278 276 274 273 272 273 273 272 270 269 269 268 268 269 268 267 265 265 265 265 265 266 266 267 268 268 268 266
290 291 291 291 290 290 292 291 292 293 293 291 291 292 292 291 289 281 279 278 277 275 274 273 273 273 273 273 273 272 271 270 270 269 269 268 267 266 266 265 265 265 265 264 263 264 265 265 266 267 267 266 266 265
291 290 290 288 289 291 291 291 291 290 289 291 292 290 284 278 275 276 275 276 276 276 275 274 272 271 270 270 270 270 269 271 272 272 272 272 270 269 266 265 264 264 263 263 263 263 264 265 265 264 264 263 263 263
291 288 291 288 289 291 290 289 290 288 285 283 282 279 277 274 272 271 273 274 274 273 272 271 271 273 272 272 271 269 268 267 267 268 270 270 268 266 264 264 264 263 262 262 263 263 263 263 263 263 263 263 262 262
289 291 292 291 290 289 287 284 287 285 283 281 279 280 277 275 272 270 269 269 270 271 272 271 270 269 270 270 270 270 269 266 266 265 265 265 264 264 264 263 262 262 262 262 262 262 261 262 263 262 262 261 260 260
286 284 287 289 289 284 282 283 283 285 284 283 278 276 275 276 275 272 269 270 271 271 268 269 270 269 268 267 267 266 266 265 265 265 265 264 264 263 263 262 262 262 262 261 261 261 261 261 261 261 261 260 259 258
283 283 284 285 286 286 282 282 280 281 281 280 276 275 274 275 274 271 268 269 268 268 268 267 268 268 267 267 266 266 265 265 265 265 265 264 264 264 263 262 261 261 262 261 261 260 260 260 260 260 259 258 258 257

GFSWCAN_925_thetae_009.txt.gz
Theta_e
299 298 297 298 299 301 301 301 302 305 304 304 305 307 311 310 312 311 325 323 320 319 321 319 317 319 319 322 332 327 326 326 327 331 335 329 334 326 324 321 323 323 326 328 325 325 327 313 316 319 320 317 316 316
300 301 301 301 300 300 300 303 304 304 306 308 310 311 309 311 312 314 324 323 326 320 326 322 323 322 320 321 325 325 325 327 328 329 331 333 327 323 327 327 320 324 322 324 320 321 317 315 315 316 316 316 316 316
298 297 298 299 299 303 303 304 305 306 308 309 308 308 310 311 312 314 325 325 324 328 325 323 323 321 320 322 324 327 327 326 327 328 331 332 329 327 327 327 324 320 317 319 318 316 315 315 315 315 315 315 316 316
300 302 304 305 304 306 307 307 307 307 307 307 308 310 311 312 314 316 325 325 321 326 330 326 320 321 318 320 322 324 325 323 323 325 331 322 329 322 329 325 323 320 318 318 318 316 315 315 315 316 315 316 317 317
306 307 307 307 307 308 308 309 309 309 309 309 309 311 313 314 314 318 321 320 322 323 326 327 320 318 319 320 321 321 322 323 324 327 322 330 323 323 321 321 322 318 316 320 319 317 318 317 317 316 317 317 316 316
307 307 308 309 310 311 313 313 312 312 312 312 313 313 314 314 314 320 325 317 318 322 327 329 321 319 320 320 321 322 323 323 324 327 326 321 317 323 324 322 318 317 317 317 318 317 317 317 316 312 311 309 308 307
309 309 309 309 310 313 314 316 317 316 316 315 314 314 314 314 316 320 319 318 316 319 326 327 327 319 318 320 320 322 322 324 324 324 326 324 320 320 321 322 318 314 313 315 314 316 318 312 311 307 307 306 304 303
311 311 310 310 310 311 312 313 313 316 317 315 314 314 313 316 315 319 309 314 315 318 323 325 325 326 318 324 325 319 324 324 321 319 317 322 318 322 324 317 313 311 312 313 310 312 309 307 305 305 304 301 300 299
310 310 310 311 311 310 309 310 313 313 313 313 313 314 316 317 320 316 311 313 314 318 325 324 324 326 317 315 316 319 321 323 316 316 319 321 315 322 314 312 311 309 310 311 308 307 306 304 303 301 300 299 298 298
309 309 310 310 310 310 310 309 309 309 311 314 316 317 321 315 309 310 310 318 320 319 316 315 317 321 319 316 315 317 315 318 321 317 315 319 318 307 305 306 307 308 309 309 308 306 305 304 302 300 299 299 299 300
309 309 310 310 310 310 309 310 309 310 310 315 318 314 312 309 313 315 316 320 319 319 313 311 315 318 313 318 313 312 315 316 320 320 318 319 316 307 305 305 304 304 305 305 305 304 302 301 301 300 300 299 298 296
308 309 310 310 311 311 310 309 309 310 312 313 314 312 311 314 316 315 314 314 316 316 310 313 311 312 311 313 314 314 314 313 319 314 319 316 307 303 301 302 303 303 303 302 301 301 300 300 299 297 295 294 292 292
305 306 308 310 311 311 310 309 308 308 309 312 311 308 314 311 316 314 316 314 312 309 306 309 311 311 310 312 313 314 314 319 313 318 316 310 303 300 300 301 302 301 301 300 299 297 295 294 293 294 293 291 293 294
305 306 306 307 307 309 311 310 308 309 309 309 312 311 312 312 307 306 308 307 301 302 307 309 308 311 308 311 310 317 308 312 316 316 315 305 301 301 301 301 301 300 298 296 296 294 293 292 291 290 290 290 290 289
300 304 307 306 305 305 307 308 308 306 303 303 306 308 304 300 299 298 298 300 299 301 305 310 310 312 309 311 308 310 310 315 314 313 306 301 299 300 301 301 300 296 295 298 297 293 293 293 292 289 288 287 287 287
299 299 298 298 303 306 304 307 305 299 298 300 300 302 300 302 301 299 299 299 299 300 304 308 308 311 309 310 312 314 315 315 309 304 300 298 300 301 300 298 299 298 296 297 295 293 291 289 289 289 287 285 286 285
298 297 297 298 298 298 299 299 299 298 300 302 301 297 299 299 299 298 297 297 297 300 304 305 311 308 305 310 310 309 310 306 300 299 299 299 300 299 298 298 295 296 296 295 292 290 288 288 287 287 287 285 284 284
296 296 298 298 299 299 297 299 300 300 300 300 301 299 299 298 299 299 298 299 302 303 303 304 303 307 310 309 309 304 301 298 298 299 298 298 299 299 299 298 296 294 291 289 289 288 288 288 287 286 284 283 283 283
293 295 297 298 298 300 299 298 299 299 299 298 298 297 298 299 298 297 299 301 299 300 302 303 308 306 306 303 301 300 299 299 297 297 296 296 296 296 295 293 291 291 290 289 289 289 285 283 283 282 281 281 281 281
291 292 295 297 300 299 298 298 298 299 299 297 297 297 298 298 298 299 298 301 302 302 302 303 300 297 297 295 294 298 299 299 298 297 295 294 292 291 291 291 289 287 286 284 283 284 284 284 281 280 279 279 279 278
293 291 293 297 297 295 295 297 297 297 297 296 296 298 298 299 299 299 300 300 302 300 299 295 294 293 291 290 291 293 293 297 299 298 296 292 290 289 288 287 287 287 286 285 284 282 281 280 278 277 277 278 276 277
292 291 295 294 296 295 296 295 296 296 297 297 297 298 298 300 299 298 298 300 296 294 294 294 292 293 291 289 288 288 289 290 290 289 289 288 288 287 286 285 285 283 281 280 280 279 278 276 274 275 276 275 276 276
292 293 293 294 295 296 293 294 294 294 296 296 297 297 297 297 295 296 297 296 292 290 291 290 288 287 287 286 285 285 286 286 285 284 283 282 281 281 280 279 280 280 279 277 276 276 276 273 274 273 274 274 275 275
290 291 293 294 294 293 293 293 293 294 295 295 295 296 295 295 294 296 295 291 289 288 290 289 289 288 287 285 284 284 283 283 283 282 282 282 280 279 277 276 275 274 274 274 274 274 274 273 272 273 273 273 274 273
294 292 294 294 294 294 294 294 294 295 294 294 295 296 294 294 295 293 292 289 287 286 287 287 286 287 287 285 282 280 279 281 280 279 278 279 278 277 276 275 274 272 272 273 273 273 273 272 272 272 271 272 272 271
293 292 292 293 293 294 293 294 294 293 293 294 294 293 293 294 294 292 289 286 286 284 283 285 287 286 283 282 282 280 278 278 278 277 275 275 276 277 277 277 276 274 271 271 271 271 271 270 270 270 270 271 271 270
292 292 292 291 291 292 293 292 292 293 294 294 294 293 294 295 293 288 285 282 283 280 279 280 281 282 281 279 277 276 275 275 275 274 273 272 272 271 272 272 272 270 268 269 268 269 269 269 269 269 269 270 270 269
291 292 292 291 292 292 293 293 294 294 294 292 293 294 293 292 289 283 281 279 279 278 277 276 276 276 276 276 276 275 275 273 272 273 272 272 271 270 269 269 268 266 266 267 266 266 267 267 268 268 269 269 268 268
292 291 292 291 292 292 292 292 292 291 290 291 293 292 287 281 278 279 277 278 278 279 278 277 276 275 274 273 273 273 273 273 275 275 275 276 274 273 269 268 268 267 267 267 267 266 266 265 266 266 266 266 266 266
292 290 293 291 292 292 291 291 291 289 287 286 285 283 281 277 274 275 276 277 277 276 275 275 275 276 275 276 274 272 270 269 269 270 272 272 270 268 268 268 267 267 266 266 266 266 266 266 266 267 266 266 266 265
290 291 292 292 292 289 288 287 288 287 286 285 283 284 281 277 274 273 273 274 274 275 275 274 273 273 273 272 272 272 273 269 266 266 265 266 267 267 267 266 266 265 265 265 265 265 265 264 265 266 266 265 264 263
289 288 290 290 291 287 286 287 287 288 287 286 283 281 279 280 278 274 271 273 273 273 271 273 273 271 269 269 268 268 267 267 267 266 265 265 266 266 266 265 265 265 265 264 264 264 264 264 264 264 264 264 263 261
288 288 287 288 288 288 287 286 286 285 284 283 280 280 278 279 276 273 270 269 270 270 270 270 269 269 268 267 267 267 267 267 265 264 264 264 264 264 263 264 265 264 264 264 264 264 264 264 263 263 262 262 261 260

GFSWCAN_925_thetae_012.txt.gz
Theta_e
299 299 299 299 299 299 300 299 298 299 301 302 303 302 302 304 305 308 312 315 324 326 323 323 321 320 322 329 334 329 328 328 335 334 334 337 334 332 328 322 325 326 330 328 331 327 326 315 315 320 324 319 318 317
298 298 298 299 299 299 297 297 299 301 302 303 303 302 303 303 304 308 312 315 323 328 326 325 324 323 322 321 328 329 328 329 331 333 333 337 325 322 327 331 321 327 326 331 325 327 321 316 316 317 316 317 317 317
299 299 298 298 298 299 300 301 301 302 303 303 303 303 304 304 306 310 312 316 325 329 327 324 324 323 323 324 327 329 328 328 330 332 337 337 325 331 326 334 326 322 320 325 323 316 316 317 315 316 315 316 316 317
300 300 300 301 301 301 300 300 301 302 303 303 304 304 304 305 308 309 312 318 326 328 325 328 322 323 321 322 325 326 329 328 331 332 336 322 328 327 333 331 333 323 319 318 319 318 317 315 317 317 317 317 318 318
297 297 298 298 299 299 299 301 304 304 304 304 304 304 305 309 309 309 311 316 323 323 328 328 322 320 321 322 323 324 327 329 330 329 319 334 329 329 327 328 330 320 319 327 327 319 320 319 318 317 317 314 312 312
298 298 299 300 300 300 302 303 304 304 303 306 308 309 309 307 310 312 320 321 322 324 330 329 322 322 321 322 323 324 327 328 328 331 330 327 320 328 327 328 318 319 318 317 319 318 318 316 312 310 310 309 308 307
306 306 306 306 307 307 306 306 306 307 307 307 307 308 309 310 312 319 319 317 321 324 329 327 325 321 322 323 324 324 324 326 327 329 331 326 323 324 321 328 319 315 315 314 314 316 315 312 310 309 306 304 302 301
307 307 308 308 309 311 310 309 308 308 308 308 308 309 310 312 315 318 312 315 319 319 322 325 321 324 321 327 326 323 328 326 323 321 324 328 321 329 328 318 315 313 314 312 311 310 309 308 307 305 302 301 300 300
308 308 309 310 308 310 312 313 312 311 311 311 312 313 313 316 321 317 314 315 314 319 318 323 321 324 320 318 319 323 324 327 319 319 326 323 317 324 319 315 313 312 314 312 309 308 307 306 304 302 301 300 300 300
309 309 309 309 309 309 309 312 314 314 313 313 315 318 319 314 313 312 316 317 317 317 317 319 318 322 319 315 315 317 317 323 320 319 317 324 320 311 309 310 310 310 312 310 308 306 305 304 302 300 300 300 299 299
310 310 309 309 310 311 311 312 312 314 316 318 320 317 311 311 315 317 317 320 315 317 315 314 316 320 316 319 314 314 318 319 321 320 320 318 316 311 308 307 307 307 307 307 305 304 302 300 300 300 298 297 295 294
310 310 311 309 308 310 311 314 315 315 315 317 315 312 312 315 316 313 314 314 318 318 310 313 314 314 314 316 314 314 314 317 320 314 319 317 312 307 305 305 305 305 304 303 301 301 300 299 298 296 294 293 292 291
307 308 310 310 310 309 309 310 311 311 312 312 312 307 314 310 314 315 315 315 313 306 306 310 310 312 312 313 313 313 314 316 315 315 316 312 306 303 303 304 304 302 302 301 298 296 295 294 294 293 291 291 294 292
305 305 307 308 310 311 310 309 310 310 310 310 309 309 310 310 307 305 306 305 300 300 305 309 308 311 309 308 310 315 308 312 316 317 315 306 303 301 302 303 302 300 296 296 296 294 292 290 290 290 289 289 288 288
303 306 307 305 305 308 310 310 310 307 303 304 305 307 304 300 299 299 298 300 299 301 304 312 311 311 309 308 308 309 311 315 313 314 307 302 301 301 301 301 298 297 296 296 294 292 291 290 289 288 287 287 286 286
301 301 298 300 301 306 309 310 305 300 298 299 299 302 300 302 301 299 299 299 298 300 306 309 310 311 308 310 313 314 316 316 309 303 299 299 299 300 301 299 296 297 298 296 293 291 290 290 289 288 286 285 285 283
299 298 298 298 299 300 303 301 299 300 300 300 300 295 298 299 299 298 297 297 297 302 304 307 310 307 306 310 309 306 307 304 299 298 298 298 299 299 299 297 297 297 296 294 291 290 289 288 288 288 287 285 285 284
297 298 298 298 302 300 299 300 301 301 300 299 300 298 297 296 298 298 298 300 301 301 302 304 304 308 309 310 308 303 299 296 298 298 298 299 300 299 299 298 296 293 291 290 289 289 289 288 288 286 285 283 284 283
294 297 298 299 300 300 300 299 300 299 299 298 297 298 298 300 299 298 299 303 302 303 303 305 305 304 302 298 298 299 298 297 298 297 297 297 297 296 294 292 291 291 290 290 290 288 285 284 283 283 282 282 282 281
293 294 297 298 300 299 298 299 299 299 299 298 298 299 299 299 299 297 299 302 304 304 300 299 296 294 294 293 292 293 295 295 296 296 295 294 293 292 292 291 290 289 287 285 285 286 286 284 281 280 279 280 279 279
293 294 296 298 297 296 298 299 298 298 298 297 298 300 299 299 299 300 301 301 298 296 297 295 294 292 290 289 289 290 291 290 290 296 295 293 290 290 289 289 289 288 287 286 285 282 281 280 279 278 278 279 277 278
294 295 296 295 296 296 296 296 298 297 298 298 298 299 299 299 299 298 299 296 293 293 293 292 291 291 289 288 288 288 288 286 286 287 289 289 289 288 287 286 285 283 282 281 281 280 279 277 275 276 277 276 276 277
293 295 295 296 295 295 294 294 295 295 296 296 298 297 297 296 297 298 296 293 291 290 290 289 287 287 287 286 285 285 286 285 285 284 283 283 282 280 279 279 280 281 279 278 277 277 277 275 275 274 275 275 275 275
291 292 293 295 295 294 295 294 295 295 296 295 296 296 294 295 296 296 293 291 289 288 288 288 289 288 286 284 283 283 284 284 283 283 282 281 280 279 278 277 275 275 276 277 276 276 275 274 274 274 274 273 274 273
295 292 295 295 296 296 295 294 295 295 294 295 296 296 294 295 296 294 292 290 287 286 286 287 286 287 287 285 282 281 280 281 280 280 280 280 279 278 277 276 274 273 273 274 274 273 273 273 272 272 271 272 272 272
293 292 293 293 293 294 294 294 294 293 293 295 293 293 294 296 295 293 289 287 285 283 283 284 287 285 282 281 281 279 278 280 279 277 276 276 277 278 278 278 277 274 271 271 271 271 271 271 271 270 271 271 271 271
292 292 292 292 292 293 293 293 293 295 295 296 295 295 295 296 293 288 285 282 283 280 280 280 281 281 280 279 277 276 276 275 276 275 274 273 273 273 272 272 272 270 269 269 269 269 269 269 269 269 269 270 271 270
292 292 292 292 293 293 293 294 295 295 294 292 294 294 293 290 287 283 282 281 280 279 278 278 277 277 277 277 277 277 277 275 275 274 274 274 273 272 271 270 269 268 268 268 268 268 268 268 267 268 268 268 268 268
292 291 293 291 292 292 292 293 293 291 290 291 293 291 286 280 278 280 279 279 280 281 280 279 277 276 275 275 274 274 273 273 275 275 276 276 275 273 270 269 269 269 268 268 268 268 268 267 267 267 267 267 267 267
290 291 293 292 292 293 291 290 291 289 287 287 285 283 280 277 276 276 277 277 277 277 276 276 276 276 276 277 275 273 271 269 269 270 271 271 270 269 269 269 268 268 267 267 267 267 267 267 266 267 268 267 267 266
290 292 292 292 292 290 288 287 288 287 287 285 284 284 280 277 275 273 273 275 275 275 276 275 273 273 272 271 271 272 273 270 268 268 266 267 267 268 268 268 267 267 267 266 266 265 266 266 266 266 266 266 266 265
289 288 290 290 291 289 287 287 287 289 289 287 284 282 280 282 278 274 271 273 274 273 272 272 272 271 270 270 270 270 268 268 268 267 266 265 265 265 265 265 265 266 266 266 265 265 265 266 265 265 265 265 264 263
289 289 288 288 289 289 288 287 288 287 285 284 281 281 279 278 275 273 272 271 271 271 270 270 270 270 269 269 268 268 268 268 267 267 266 265 265 264 263 263 264 264 264 263 264 264 265 265 265 265 263 263 263 262

GFSWCAN_925_thetae_015.txt.gz
Theta_e
298 297 297 296 297 298 298 297 298 299 301 300 302 303 302 303 302 307 307 308 313 322 321 322 320 321 321 324 322 325 323 322 317 319 317 316 316 316 317 322 319 316 316 313 316 317 318 315 314 312 316 315 314 313
297 298 298 299 298 298 298 297 299 299 300 300 301 302 302 303 304 305 307 308 309 314 323 324 323 321 323 323 323 321 321 325 324 321 319 315 314 313 316 316 320 320 319 317 317 316 315 313 313 315 313 313 314 314
299 298 298 298 298 297 297 298 298 298 299 300 301 301 301 303 303 303 305 309 312 317 320 324 324 321 326 325 323 324 324 325 325 323 318 317 318 309 317 316 321 320 318 315 314 315 315 313 313 312 313 314 315 312
298 298 298 298 298 298 298 298 297 299 301 301 301 302 302 302 303 304 304 307 312 317 316 323 323 320 322 326 326 327 326 328 325 323 313 314 317 321 313 317 315 318 316 317 316 315 317 317 316 316 313 313 308 306
299 298 298 299 299 298 298 298 300 300 301 302 302 303 303 302 303 304 305 307 312 316 320 321 321 321 321 324 325 326 325 324 321 314 307 315 312 315 308 311 311 316 316 312 310 318 316 315 312 310 309 308 307 305
300 300 300 300 300 300 301 301 302 302 302 302 303 303 303 304 305 307 312 309 310 312 320 318 319 320 321 323 322 324 323 322 323 319 314 317 318 313 311 310 317 315 315 316 318 314 311 309 306 305 305 304 303 302
297 297 298 299 299 299 299 300 301 303 303 302 303 303 304 305 307 312 317 314 317 313 318 316 314 317 321 322 319 320 322 322 320 321 313 313 316 317 306 312 315 314 312 313 312 310 310 309 306 303 301 300 299 298
299 298 299 298 297 298 299 300 303 304 304 304 304 304 306 308 309 311 315 316 317 317 316 312 315 316 319 315 314 317 316 315 315 315 312 309 312 306 313 314 312 312 311 310 308 308 306 304 302 301 300 299 298 297
304 304 303 301 300 300 300 302 303 303 304 305 306 307 307 310 315 315 315 315 313 316 311 309 316 319 316 312 309 313 314 312 310 307 309 309 305 315 316 312 311 311 312 309 307 305 304 303 302 300 299 298 298 298
306 307 307 306 305 305 305 305 305 305 307 309 311 313 310 313 312 315 317 310 309 312 309 309 311 316 315 306 309 310 306 308 309 307 311 311 305 308 308 308 308 310 307 305 304 303 302 302 300 300 299 298 297 294
308 307 308 311 310 308 307 308 308 309 309 314 313 310 310 314 313 307 307 308 309 307 307 307 309 313 312 312 311 307 309 307 313 310 309 306 307 309 306 306 305 304 304 304 304 302 300 299 299 297 294 293 290 289
309 310 309 307 308 309 308 309 309 313 315 315 313 311 311 312 309 308 307 306 310 311 305 309 309 312 306 311 305 309 309 306 313 309 313 313 307 304 304 304 303 302 300 300 300 300 299 297 295 293 291 290 289 288
310 310 310 311 309 308 309 313 313 312 312 310 306 304 310 304 310 308 310 309 309 304 304 303 306 307 306 308 307 310 316 312 305 311 312 307 305 303 304 303 302 300 300 298 296 295 293 292 291 291 291 291 288 287
310 310 310 309 309 311 311 311 310 310 308 304 304 305 307 308 303 303 304 303 299 299 301 304 304 305 302 306 305 311 307 308 313 312 310 304 303 302 302 302 301 297 294 293 292 291 290 290 289 289 289 288 287 286
306 308 310 309 308 310 309 308 309 307 299 299 300 304 302 299 299 298 297 299 297 299 300 305 304 306 305 307 305 307 309 311 310 309 304 301 301 300 300 297 295 294 293 292 291 290 289 288 288 287 286 286 285 285
300 302 300 303 308 310 309 310 305 300 297 297 297 301 299 301 300 299 298 299 298 298 299 301 305 307 306 307 310 309 311 309 304 300 299 299 299 299 297 296 296 295 293 292 291 290 289 288 287 286 285 284 283 283
298 297 299 301 302 305 306 302 299 297 296 298 298 295 297 298 298 298 296 298 297 300 303 303 306 305 302 307 306 303 303 301 298 298 297 298 298 297 295 295 294 293 291 290 290 289 289 288 285 285 285 284 283 282
297 298 298 301 301 300 300 299 297 297 298 297 298 297 296 295 297 296 296 297 299 299 300 302 301 305 304 305 303 300 297 296 296 296 297 298 297 297 297 296 293 291 290 289 289 288 287 287 285 283 282 283 282 281
297 298 299 298 298 299 295 298 298 298 297 296 295 295 296 296 295 295 296 297 299 298 299 300 298 298 297 294 293 294 296 296 297 295 294 295 294 294 292 291 290 290 289 289 287 284 283 282 281 280 281 280 280 279
294 296 297 298 298 297 296 295 298 297 298 296 296 297 296 296 295 295 295 295 296 296 296 295 293 293 292 290 290 292 291 294 295 294 293 292 291 291 291 290 288 286 285 285 284 283 281 280 279 279 279 278 277 277
292 294 294 296 296 296 294 294 296 296 296 297 295 295 296 294 296 296 294 292 292 294 293 292 291 289 288 288 288 288 287 288 289 293 292 290 289 289 288 288 287 286 285 283 282 279 278 277 276 277 277 277 276 277
293 294 293 293 293 293 293 294 294 295 295 295 295 295 295 294 294 296 291 291 291 291 290 289 288 287 286 286 286 286 286 286 285 284 285 285 284 284 283 282 281 280 279 280 279 277 276 275 275 275 276 275 275 276
292 293 294 293 288 288 288 294 289 292 291 293 293 294 295 294 293 292 291 290 289 289 288 288 287 286 284 283 283 284 284 283 282 282 281 280 279 278 278 277 279 278 277 277 277 276 275 275 274 274 274 273 273 274
292 292 290 289 289 292 288 288 291 291 290 293 293 291 293 291 290 289 290 288 287 286 287 287 287 285 283 281 281 281 282 281 281 281 280 279 278 277 276 275 275 275 276 275 274 274 274 273 273 272 272 271 272 272
287 287 288 287 289 288 287 293 290 291 294 293 291 292 292 290 289 291 289 287 283 282 282 284 282 283 282 281 280 279 279 279 278 277 277 278 277 276 275 274 273 272 272 272 272 271 271 271 271 270 270 271 271 271
290 291 291 291 292 292 293 292 292 293 293 294 293 292 293 292 288 287 286 283 280 279 280 281 282 280 279 278 278 276 276 278 276 275 274 275 275 276 275 274 272 270 269 269 269 269 269 269 269 269 269 269 270 270
292 292 292 290 292 293 293 293 292 290 289 291 292 293 288 293 286 285 282 281 280 279 278 278 279 279 278 277 276 275 274 275 275 274 273 272 272 272 271 270 269 268 268 269 268 267 267 267 267 267 267 268 268 267
292 292 292 292 292 291 290 290 288 289 290 291 292 286 285 285 281 281 280 280 279 278 277 276 276 276 275 275 274 274 274 275 275 274 273 272 271 270 270 269 269 269 268 268 268 268 267 267 267 267 266 267 267 266
291 291 288 287 291 292 291 291 291 289 288 289 285 283 281 278 277 278 278 278 277 277 277 277 276 275 274 273 272 271 270 272 273 269 268 267 271 269 268 269 269 268 267 267 267 267 267 267 267 266 266 266 267 267
289 287 287 284 283 289 288 288 288 286 285 285 281 279 277 276 274 274 275 275 276 275 274 274 273 273 271 273 271 270 269 269 268 268 264 262 267 267 268 268 267 267 267 267 266 266 265 265 265 266 266 266 266 266
289 288 286 286 286 287 286 287 288 287 285 281 279 276 275 273 273 272 272 274 273 274 272 271 270 270 270 270 270 269 269 268 268 267 267 266 266 266 266 266 265 266 266 266 266 265 265 265 265 265 265 265 265 264
287 287 282 284 287 285 286 287 287 286 284 282 278 273 273 274 270 271 270 271 271 271 271 270 270 269 269 269 268 268 268 268 267 267 267 266 265 265 265 264 264 264 264 264 264 264 264 264 264 265 265 264 263 263
285 283 282 280 281 283 282 280 283 280 278 278 277 276 273 271 271 272 270 270 269 269 269 269 269 270 270 269 268 268 267 267 266 266 266 265 265 265 264 264 263 263 263 262 262 262 262 262 263 264 263 263 262 261

GFSWCAN_925_thetae_021.txt.gz
Theta_e
301 300 300 299 298 298 298 298 297 297 297 297 297 297 297 298 299 298 301 305 306 308 309 313 315 315 315 314 315 316 323 319 308 316 314 311 311 314 313 314 313 316 314 309 307 307 314 310 312 310 308 311 311 310
297 297 297 297 296 297 297 297 297 297 296 296 297 297 297 299 298 300 302 304 305 308 308 307 308 309 311 314 316 318 319 320 318 317 313 309 310 305 313 316 315 315 313 313 313 312 310 311 310 310 309 310 309 310
298 297 297 297 297 297 297 297 296 296 297 297 298 299 299 300 299 299 302 304 305 306 306 308 315 315 317 318 315 320 316 320 320 316 314 311 314 307 312 310 315 315 313 313 313 314 314 312 312 311 311 311 311 311
297 297 297 297 297 297 297 297 297 298 298 298 298 299 298 298 298 300 302 306 305 308 310 316 316 317 320 320 319 320 318 318 316 315 310 307 313 310 306 313 311 313 314 314 313 316 314 313 310 306 305 303 302 301
296 296 296 296 296 296 297 297 297 297 297 297 298 297 298 298 299 301 302 305 307 307 312 314 314 317 319 321 320 320 320 317 312 312 308 313 308 312 300 307 306 312 313 312 312 314 312 313 307 305 304 302 301 300
297 297 297 297 297 297 298 299 298 297 297 297 298 298 298 299 303 304 304 304 304 305 309 311 312 316 318 321 320 318 319 317 314 311 307 312 314 311 310 309 313 312 311 310 313 309 308 304 302 302 301 300 299 298
298 297 297 297 297 298 298 299 300 300 299 298 298 299 302 303 302 303 304 307 304 304 309 311 311 316 317 316 314 318 316 317 318 315 306 309 313 306 299 310 313 312 309 307 305 305 305 304 302 300 299 298 297 296
298 297 297 298 298 297 298 299 300 300 301 301 300 301 301 302 302 304 308 310 305 307 310 310 311 313 314 310 317 313 314 313 312 313 307 306 310 300 310 312 309 308 307 305 303 304 303 299 298 297 297 296 296 295
298 298 298 297 298 299 299 300 301 301 300 300 301 302 302 303 304 307 308 307 310 311 311 306 311 316 313 311 308 309 309 312 310 310 310 313 309 313 310 311 309 308 308 302 301 300 299 298 298 297 296 295 294 293
298 298 298 300 301 301 301 300 300 301 301 302 302 305 306 305 307 307 306 308 309 310 306 307 309 314 314 306 309 308 305 308 313 309 308 308 308 306 304 307 305 304 303 301 301 300 298 298 297 296 296 295 293 291
298 298 299 299 299 299 300 300 301 302 303 303 305 305 307 307 306 304 303 306 307 307 305 307 307 312 310 312 309 303 308 304 309 310 310 310 309 305 302 304 304 303 303 303 302 300 298 297 296 294 292 291 289 289
297 298 298 298 299 298 300 302 302 302 302 304 309 308 307 306 306 304 304 305 307 309 304 308 308 310 306 308 307 306 308 305 311 305 305 312 304 301 300 300 300 299 299 299 299 298 297 295 293 291 290 289 289 288
297 297 297 297 298 299 300 303 302 305 305 307 304 303 306 300 306 308 310 308 308 302 303 303 306 303 304 305 304 305 306 305 304 303 308 303 305 301 300 300 300 299 299 298 296 294 292 291 289 289 288 288 287 286
302 301 300 300 300 301 303 304 304 305 305 301 306 303 304 303 302 302 303 303 299 299 300 301 303 305 301 306 304 312 306 307 309 309 306 304 303 301 300 298 297 296 294 293 292 291 290 289 288 288 287 286 284 283
303 303 303 303 303 303 303 303 304 303 298 299 300 302 301 299 298 298 297 299 298 298 300 304 304 305 304 306 304 306 310 310 308 303 304 302 301 299 297 295 293 292 291 291 290 289 288 288 286 285 285 284 283 282
306 307 303 306 306 306 305 301 299 298 294 297 297 300 299 300 300 298 298 299 298 297 298 301 303 305 306 306 307 305 308 307 303 299 298 297 298 296 295 293 292 291 290 289 289 288 287 286 285 284 283 282 281 281
302 300 300 300 300 300 300 298 296 294 296 297 297 296 297 298 298 298 296 297 296 300 303 296 303 304 302 302 302 300 299 298 297 297 296 295 295 293 292 292 291 290 289 288 287 287 285 284 283 283 282 281 280 280
298 298 300 301 301 301 298 297 295 296 298 296 297 296 294 293 294 294 294 294 297 298 299 300 297 295 293 295 294 293 296 296 295 295 294 294 294 293 292 292 291 290 289 288 286 285 284 284 284 282 282 281 280 279
296 297 299 300 302 298 295 295 295 297 296 295 295 294 294 292 291 290 291 292 293 293 294 293 292 292 291 290 290 289 289 293 294 293 292 291 291 291 290 290 290 289 288 286 285 283 282 281 281 280 280 280 279 277
296 297 297 298 299 294 294 294 295 296 297 295 294 292 292 291 289 289 289 290 291 291 290 289 287 287 287 286 286 287 286 289 292 291 289 287 287 287 286 286 284 283 282 281 281 280 279 279 278 277 277 277 277 277
293 292 295 296 295 293 290 292 295 295 294 295 294 294 293 290 288 288 288 288 288 289 288 287 285 284 284 283 283 284 284 284 285 288 286 284 283 283 282 282 281 280 280 279 278 277 277 276 276 276 276 276 276 276
292 292 291 291 288 288 289 289 292 290 293 292 291 289 289 290 287 287 286 286 286 286 286 284 283 283 282 282 281 281 281 281 281 280 279 280 280 279 279 279 279 278 277 277 276 275 274 274 275 274 274 273 274 274
292 293 291 287 285 285 286 288 287 289 288 287 286 288 288 285 286 285 285 285 283 283 283 282 281 280 280 279 279 279 279 279 278 278 277 276 276 275 274 275 275 275 275 274 274 273 272 273 272 272 271 271 272 272
291 285 282 281 284 282 279 284 287 287 285 284 286 291 290 287 283 282 283 282 281 280 281 281 280 280 278 277 277 277 277 277 276 276 276 275 274 272 272 271 271 271 271 271 271 271 270 270 270 270 269 269 269 270
286 284 281 282 280 283 282 282 284 285 283 281 289 289 288 281 279 280 280 279 278 277 277 277 277 277 276 276 275 276 275 275 274 273 273 274 273 272 270 269 269 268 268 268 268 268 268 268 268 267 267 267 267 267
285 286 287 285 284 285 283 283 282 283 279 282 286 288 278 275 276 279 281 275 275 275 274 275 275 275 275 274 274 273 273 273 272 271 270 271 271 271 269 268 268 268 268 267 267 267 267 267 267 266 266 266 266 266
284 284 288 285 284 284 284 282 280 280 282 287 282 277 278 275 276 280 279 277 276 275 274 274 274 273 273 272 272 272 272 272 271 269 269 269 269 269 268 268 268 267 267 267 267 266 266 266 266 266 265 265 265 266
289 286 284 280 280 279 277 275 277 281 281 285 279 274 271 272 274 276 276 276 274 274 272 271 270 270 269 269 270 272 271 271 271 270 269 268 267 267 267 267 267 267 267 266 266 266 266 266 265 265 265 265 265 265
284 281 280 278 277 278 281 279 281 284 283 278 271 274 273 273 271 271 273 273 274 273 271 270 270 270 270 269 269 269 269 269 269 261 258 256 264 265 265 265 265 265 264 264 265 265 265 265 265 264 264 264 264 264
282 273 277 282 278 283 280 274 277 276 274 272 273 273 271 270 270 271 271 271 270 269 269 269 269 270 269 268 267 267 266 266 266 266 260 259 265 265 265 264 264 263 263 263 263 263 263 263 263 263 263 263 264 264
273 273 276 276 281 283 281 276 276 274 269 265 268 265 266 268 270 270 270 269 269 269 269 268 268 268 268 267 267 266 266 265 265 265 265 265 264 264 264 264 263 263 262 262 262 262 261 261 261 261 261 262 263 262
272 269 274 278 283 277 280 279 279 271 269 269 267 262 266 265 265 268 268 269 269 268 268 268 268 267 267 267 266 265 265 265 264 264 264 264 263 263 263 263 262 262 262 262 262 262 261 261 260 260 260 260 260 260
269 267 266 271 276 276 271 274 276 273 270 270 269 266 264 266 266 268 267 267 267 267 267 267 267 267 266 266 265 264 264 263 263 263 263 263 263 263 262 262 262 261 261 261 261 261 261 260 259 259 258 258 258 258

GFSWCAN_925_thetae_027.txt.gz
Theta_e
301 301 302 301 300 301 302 302 302 302 300 302 302 301 301 301 300 299 298 301 303 305 305 305 308 310 310 310 310 311 313 313 312 314 316 317 316 318 318 318 319 322 322 321 315 321 324 312 309 317 318 311 312 313
302 301 301 301 301 301 301 302 301 300 303 302 301 302 302 301 301 299 298 299 300 300 305 305 306 305 307 309 309 310 311 312 312 315 313 312 316 313 316 322 313 323 320 323 321 324 317 311 315 312 310 313 311 314
299 301 301 301 300 300 301 301 301 303 302 301 300 300 301 301 300 299 298 298 298 300 302 305 306 307 308 307 309 313 313 315 314 314 314 315 316 313 318 316 316 313 311 318 318 317 314 313 311 311 309 311 309 311
298 299 301 301 302 301 302 302 302 301 301 301 301 301 300 300 300 297 298 297 299 302 305 306 308 308 309 310 309 310 313 314 314 314 312 312 317 312 316 317 317 315 313 314 315 313 315 314 312 312 309 309 307 306
297 297 298 298 298 299 300 300 299 300 300 300 300 299 299 299 299 298 297 298 298 303 306 308 306 307 307 313 309 312 313 315 314 315 310 316 310 312 307 311 314 313 315 317 319 315 317 315 313 308 308 307 305 303
297 297 297 298 299 299 299 299 299 299 299 299 299 299 299 299 298 297 297 297 300 300 303 305 307 309 314 316 315 314 315 314 316 314 311 311 312 315 316 317 315 313 313 313 315 311 308 305 304 304 304 303 301 301
297 296 296 297 297 297 298 298 298 298 298 298 297 297 297 297 297 299 300 300 298 299 305 305 307 310 313 316 315 316 314 315 315 315 312 314 314 313 311 318 315 312 312 309 306 308 308 305 307 302 301 299 298 297
298 297 296 296 296 296 297 296 296 296 297 296 296 295 296 297 297 300 302 300 299 302 305 305 307 308 312 311 314 311 313 312 314 314 309 313 309 306 315 313 311 309 307 306 306 304 306 302 299 298 298 298 297 296
298 298 298 297 296 296 296 296 297 297 297 296 297 296 298 298 300 301 303 302 303 303 303 303 309 313 311 311 308 308 308 313 310 311 311 312 311 316 314 311 310 307 309 305 301 301 301 301 299 298 298 297 296 296
297 299 299 299 297 296 296 297 297 297 298 298 299 300 300 301 302 304 305 305 305 305 306 307 308 312 310 306 309 310 305 311 316 313 308 313 315 308 306 306 307 304 302 302 302 300 299 299 298 297 297 296 296 295
296 298 300 300 300 299 296 297 298 297 298 299 301 300 300 302 303 302 303 303 303 305 306 307 306 311 309 311 310 305 307 307 317 315 315 315 315 307 303 305 304 302 302 303 303 300 300 299 297 295 295 294 293 293
298 300 301 300 299 299 297 296 297 298 299 301 303 303 303 303 302 303 304 302 303 309 304 307 308 310 305 309 308 305 309 306 317 307 314 316 307 302 302 302 301 301 301 299 299 297 296 295 294 293 292 292 289 287
299 300 301 301 299 299 298 298 300 300 303 304 301 300 304 300 306 305 307 307 307 302 302 303 306 304 304 305 305 306 310 311 304 311 312 307 303 301 300 299 298 297 296 295 294 293 292 291 291 290 288 287 287 286
299 299 300 301 300 300 301 300 300 299 300 300 301 302 302 303 301 300 302 303 299 299 300 301 303 305 301 305 304 312 306 306 310 310 307 303 301 299 298 297 296 294 293 292 291 290 290 289 288 287 287 287 286 285
298 298 298 299 301 300 300 299 298 297 296 299 299 302 301 299 298 298 297 298 297 297 299 303 304 305 305 306 304 307 309 307 304 303 300 298 297 296 295 294 293 292 290 290 289 288 287 287 286 285 285 285 284 283
297 297 298 298 300 300 300 299 297 296 294 296 293 294 295 297 294 294 293 296 296 296 298 301 304 305 303 301 301 300 303 299 298 297 296 295 294 293 292 291 291 290 289 289 288 287 286 285 284 283 282 282 281 281
299 301 299 299 299 299 299 297 295 294 296 296 294 290 290 292 291 291 291 292 293 299 301 298 295 296 297 296 293 292 293 292 289 293 294 293 292 291 291 290 290 289 288 287 286 284 283 282 282 282 281 280 280 279
301 301 299 300 298 296 296 295 293 295 293 292 291 290 288 287 287 288 289 290 295 296 294 294 292 291 290 292 290 287 287 287 290 288 287 290 291 290 289 288 287 286 285 285 284 284 283 282 282 281 280 280 279 279
300 300 299 298 299 296 294 294 293 291 290 290 288 288 287 285 286 286 287 289 289 289 290 288 286 286 286 285 284 284 284 285 287 285 285 284 284 284 284 283 283 283 282 282 281 281 280 280 280 280 280 279 278 277
300 299 300 297 296 294 295 294 294 294 293 291 289 286 285 284 283 284 285 286 286 286 285 284 283 282 282 282 282 282 282 285 286 284 282 282 281 281 281 281 281 280 279 278 278 278 277 277 276 276 277 277 276 275
299 299 299 298 292 292 291 293 295 294 293 293 293 288 286 284 283 282 282 283 283 283 282 282 281 281 280 280 280 280 279 279 279 281 281 279 278 278 278 277 277 277 276 276 275 274 274 274 273 273 274 274 274 274
292 291 291 291 290 289 289 287 292 290 292 290 288 288 287 282 280 282 281 280 280 281 281 280 280 280 279 279 278 278 278 277 276 275 275 275 275 275 274 275 274 273 273 273 272 271 271 270 270 271 271 271 271 271
292 291 288 286 285 285 285 287 286 287 287 285 285 286 283 280 281 281 279 279 279 278 279 279 278 277 277 276 275 275 275 275 274 273 272 271 271 270 270 269 270 271 270 269 269 268 267 268 268 268 268 268 268 268
289 283 279 279 282 280 278 281 285 285 282 283 286 285 285 280 278 278 279 278 277 276 276 276 277 276 275 274 274 273 273 273 272 272 271 271 270 269 268 268 267 267 267 267 267 266 266 266 266 266 266 266 266 265
285 283 280 280 277 280 278 278 279 282 281 281 283 284 279 277 276 276 277 277 275 274 274 274 274 273 273 273 272 271 271 271 270 269 268 270 269 269 268 267 266 265 266 266 266 266 266 266 265 265 265 265 264 264
285 283 285 277 279 282 278 280 281 282 279 281 281 278 273 273 274 277 278 274 274 273 272 272 273 272 272 271 271 270 270 270 269 268 267 267 267 266 266 266 266 265 265 265 265 265 265 265 265 264 264 264 264 264
285 282 284 281 281 280 278 275 277 278 279 284 276 271 271 271 272 276 276 273 272 269 269 270 271 270 270 270 268 268 269 269 268 266 265 265 265 265 265 264 263 263 263 264 264 264 263 263 263 263 263 263 263 263
284 279 279 275 277 276 277 272 274 277 277 279 272 269 268 269 273 272 272 270 269 269 268 269 269 269 269 268 268 268 268 267 267 266 265 265 265 264 264 264 263 263 263 263 263 263 263 262 262 262 262 261 262 262
277 271 275 273 274 275 277 274 274 275 275 270 268 268 270 270 268 269 270 271 270 270 268 267 266 267 267 267 267 267 267 267 267 263 262 262 262 264 263 263 263 263 263 262 262 262 262 262 261 261 261 260 260 261
275 271 276 271 273 273 268 267 266 263 268 268 270 270 269 267 267 269 269 270 269 268 268 268 268 268 267 267 266 266 265 265 264 264 262 261 262 263 263 263 262 262 262 262 262 261 261 261 261 261 260 260 260 260
269 270 274 275 276 269 267 266 268 267 263 263 262 263 264 265 268 268 268 268 268 268 268 268 267 267 267 266 266 265 264 264 263 263 263 263 262 262 262 262 262 261 261 261 261 261 261 260 260 259 259 259 258 258
268 268 274 275 274 271 269 266 262 265 262 263 263 257 261 261 262 265 267 267 268 268 267 267 267 266 266 265 264 264 263 263 263 263 263 262 262 262 262 261 261 261 261 260 260 260 260 259 259 259 258 258 258 257
265 264 266 270 273 273 271 270 270 268 265 265 264 261 258 262 264 265 266 266 267 266 266 266 266 265 265 264 263 263 263 263 263 263 262 262 262 262 261 261 261 260 260 260 260 260 259 259 259 258 258 258 257 257

GFSWCAN_925_thetae_030.txt.gz
Theta_e
301 300 301 300 300 301 302 301 300 302 301 302 301 300 302 301 301 300 301 302 305 306 307 307 308 309 309 311 314 313 315 315 316 317 320 321 324 322 319 319 324 324 326 328 326 330 329 318 316 322 323 322 320 320
301 301 301 301 301 302 301 301 301 301 301 301 300 302 301 301 301 300 301 303 304 306 306 303 302 303 308 309 312 315 312 313 314 315 318 319 324 321 320 325 319 324 324 326 325 324 323 318 321 320 320 320 319 319
301 301 301 300 302 302 302 302 301 301 302 301 301 302 300 301 300 300 301 302 303 305 305 305 304 306 307 308 310 313 313 312 314 314 319 323 328 323 326 322 321 320 318 323 322 322 321 320 319 317 316 318 316 317
300 300 300 301 301 301 302 302 302 302 301 301 302 301 299 299 299 299 300 301 302 303 304 305 305 307 306 309 309 311 312 312 315 316 318 322 324 319 324 324 322 320 317 321 323 321 317 319 319 319 316 315 314 316
299 300 301 300 301 302 301 301 301 301 302 302 301 300 301 299 299 299 300 300 301 304 305 305 304 305 305 308 311 310 313 316 319 319 320 319 320 319 318 318 323 317 320 323 326 322 322 322 321 318 316 315 315 315
299 299 299 301 301 301 302 302 302 301 301 302 302 301 299 298 298 299 300 299 300 302 304 305 305 308 309 310 312 313 314 314 317 318 320 319 316 319 324 322 317 318 318 319 320 317 319 314 315 317 315 315 313 313
297 299 299 299 299 300 300 301 301 301 301 301 301 300 298 298 299 300 301 300 300 300 303 307 308 309 310 313 314 316 315 316 315 317 320 320 321 317 322 323 317 318 317 317 314 313 315 312 315 311 312 311 309 310
296 297 299 299 299 300 300 300 300 300 299 298 298 298 298 298 298 300 302 299 299 302 303 307 308 309 312 315 315 312 317 317 317 317 318 320 318 317 322 320 319 316 314 314 312 310 310 311 309 308 307 306 306 306
296 296 296 298 298 298 298 298 298 298 298 298 298 298 298 299 299 297 300 299 300 302 306 305 311 314 312 312 312 311 313 316 313 319 319 320 322 322 319 316 317 316 315 315 308 308 307 308 307 305 305 305 305 303
296 296 296 296 296 297 297 298 298 297 297 297 297 299 301 299 297 299 299 302 302 304 307 309 311 314 315 311 311 310 308 313 316 319 315 320 322 315 310 310 311 310 309 307 308 307 306 305 304 303 303 302 302 301
299 296 296 296 297 297 297 297 296 296 296 298 301 302 302 298 304 303 304 305 304 306 307 308 311 312 313 315 315 310 311 310 324 321 321 321 322 313 306 307 306 306 306 307 307 307 306 305 304 302 301 300 299 298
300 299 296 296 297 296 297 298 297 298 300 301 303 302 302 304 304 304 305 302 304 309 308 310 310 310 308 312 312 310 313 312 319 310 319 320 307 303 303 303 305 305 305 304 304 303 302 302 301 300 299 295 293 291
299 299 298 297 297 297 297 297 299 298 298 303 304 304 305 303 307 306 308 308 309 305 304 306 310 313 308 306 308 311 315 316 306 312 309 304 302 300 300 300 298 298 298 297 296 297 294 293 292 291 290 288 288 287
300 299 299 297 297 297 298 299 298 299 300 303 305 304 304 305 304 304 304 306 302 300 301 304 306 306 302 305 304 313 307 308 315 312 306 301 299 297 296 295 294 293 292 292 292 291 290 289 289 288 288 288 288 288
300 299 298 298 298 298 298 298 299 298 296 299 299 300 301 299 296 297 297 299 298 297 300 303 304 305 304 306 304 307 311 307 303 301 299 297 297 295 294 293 291 291 290 289 289 288 288 288 287 287 286 286 285 284
298 299 300 300 299 299 298 298 296 296 294 294 290 292 293 295 293 292 292 295 295 295 299 302 304 306 303 303 302 300 302 298 296 294 293 295 293 293 292 291 290 289 289 288 287 286 286 285 285 284 283 282 282 282
299 299 299 299 300 299 298 296 296 295 295 294 292 289 289 290 289 290 290 291 291 299 301 299 298 297 298 297 295 293 293 292 291 290 290 291 291 290 290 289 289 288 287 286 285 285 284 284 283 283 282 281 280 279
299 298 299 298 298 295 295 294 294 293 291 290 290 289 287 287 287 288 289 290 296 296 294 294 292 291 292 293 292 288 288 289 288 286 286 286 286 285 286 286 285 285 285 285 284 284 283 283 282 282 281 281 280 280
298 298 298 298 297 296 296 295 293 291 289 289 287 288 287 287 287 288 289 290 290 291 290 289 288 287 287 285 285 286 286 288 286 285 284 282 283 284 283 283 282 282 282 282 281 281 280 280 281 281 281 280 280 280
298 298 297 298 298 297 297 296 294 293 292 290 288 288 287 286 286 287 288 289 287 286 285 284 284 283 283 283 283 283 284 287 286 284 282 282 281 280 280 281 280 280 279 278 278 278 278 277 277 277 277 278 278 277
297 296 295 293 292 293 294 296 296 294 294 294 293 290 288 287 286 285 286 285 286 284 283 283 282 281 280 280 280 280 279 280 281 282 282 280 278 278 278 277 277 277 277 276 276 275 275 275 275 275 275 275 275 274
296 293 291 291 293 292 293 291 295 294 295 294 292 290 288 287 286 284 283 283 281 282 282 281 281 281 280 279 278 278 278 277 277 276 276 277 277 276 276 276 275 275 274 274 273 273 271 270 271 271 271 271 271 271
291 290 289 289 292 294 291 291 293 291 293 292 292 289 287 286 284 283 282 281 280 279 280 279 278 278 277 277 277 276 276 277 276 275 275 274 273 273 272 272 272 272 272 271 270 270 269 268 268 269 269 269 270 270
288 285 286 288 291 289 289 290 290 290 291 291 291 289 286 285 283 282 281 279 279 278 278 278 279 279 277 276 276 275 276 275 275 274 274 274 273 272 271 270 270 270 269 269 269 269 268 268 268 268 267 268 267 268
290 287 289 289 288 289 290 290 289 291 290 289 289 288 284 284 283 282 281 279 278 277 277 277 277 277 277 276 275 273 272 273 273 272 271 272 272 272 271 269 268 267 267 269 268 268 267 267 267 267 267 266 265 266
288 286 288 289 289 290 289 289 288 288 288 287 286 282 282 282 281 281 280 278 277 276 275 276 277 277 275 275 275 273 272 272 272 271 269 269 269 270 270 270 270 267 265 265 266 266 266 266 265 265 265 265 264 264
288 287 286 283 286 286 286 286 285 286 285 286 283 281 281 280 280 278 277 275 275 272 272 272 274 274 273 272 271 270 269 269 269 268 267 266 266 266 266 267 266 264 264 263 264 264 264 264 264 264 264 264 264 263
285 285 284 282 283 283 283 283 283 283 283 281 280 277 278 278 278 276 275 272 271 271 270 270 270 270 270 269 269 269 268 267 266 266 266 265 265 264 263 263 262 263 262 262 263 263 263 263 263 263 262 262 262 261
283 282 282 278 280 279 278 280 280 278 276 277 277 276 274 272 271 273 272 272 271 271 270 269 268 267 267 266 266 266 267 267 268 268 268 268 267 265 263 262 262 262 261 262 262 262 262 262 262 261 260 260 260 261
283 281 282 278 277 278 276 274 275 273 272 273 273 272 272 270 269 269 271 271 271 271 269 269 268 269 268 269 268 266 264 263 264 265 267 266 265 262 262 262 262 261 260 261 261 261 261 261 261 261 261 260 260 259
278 284 282 281 278 276 274 272 272 272 272 272 271 272 272 271 269 268 268 267 267 267 269 268 267 267 268 267 267 267 266 263 263 263 263 262 261 262 262 261 261 261 260 260 260 260 260 260 261 260 260 259 259 258
279 280 281 279 277 275 273 276 277 276 275 274 273 271 270 272 272 269 266 267 268 269 268 267 268 267 265 265 264 264 263 263 263 263 263 262 262 261 261 261 261 261 260 260 260 259 259 259 260 260 259 259 258 257
278 279 280 279 277 276 276 277 277 276 275 275 273 272 271 272 272 269 266 267 267 267 267 266 266 265 265 264 264 263 263 263 263 263 262 262 262 261 261 260 260 260 260 259 259 259 259 259 259 259 258 257 257 257

GFSWCAN_925_thetae_033.txt.gz
Theta_e
300 301 301 301 300 300 300 300 302 302 302 302 301 302 301 300 301 302 303 305 307 308 308 308 309 309 308 310 314 312 315 316 318 319 316 313 320 317 316 314 322 325 327 330 328 330 331 321 321 322 323 322 323 323
301 301 301 302 302 301 302 301 302 302 302 301 302 301 300 301 300 301 304 305 306 308 308 308 308 309 309 309 311 313 314 315 315 315 317 314 324 326 318 320 317 321 326 326 324 325 324 322 322 322 321 323 324 322
300 300 301 302 301 301 300 301 301 301 301 301 302 301 300 301 299 302 304 304 305 306 308 308 308 307 308 309 310 314 316 313 314 313 314 319 323 323 323 323 320 321 319 324 324 324 323 323 322 322 323 323 323 321
301 300 301 302 302 301 301 301 301 302 302 301 301 300 301 299 300 302 303 303 304 305 308 308 306 307 307 308 310 311 313 313 313 314 318 322 321 314 322 321 322 319 321 321 322 321 322 322 323 323 322 321 320 319
301 300 301 302 301 301 302 301 301 301 301 300 302 302 300 299 301 302 302 303 303 306 307 306 305 304 306 307 309 311 313 315 314 317 321 320 316 317 320 322 322 318 319 324 326 321 325 323 322 323 322 321 319 318
301 300 301 302 301 302 302 301 301 301 301 301 301 301 300 300 301 301 301 302 303 304 306 308 306 306 305 306 308 312 313 315 314 316 319 317 313 316 324 321 313 315 319 320 321 321 321 322 319 319 321 320 319 318
300 301 301 301 301 301 301 301 301 301 302 300 300 299 300 300 301 302 303 302 302 302 304 304 307 308 307 309 311 312 313 313 315 317 319 318 318 318 322 324 317 317 315 318 319 318 318 318 319 317 318 318 315 317
300 300 301 301 301 301 302 302 301 301 301 299 299 299 300 300 300 303 301 300 301 303 304 303 305 305 309 311 313 313 315 315 314 315 316 318 318 321 321 316 315 315 317 318 318 316 316 314 314 314 314 314 314 315
299 300 300 300 300 300 301 300 299 299 298 299 299 299 300 300 301 302 300 300 303 303 303 306 307 310 309 311 312 314 316 315 313 317 317 317 321 322 319 318 317 317 317 316 315 313 312 313 313 311 311 311 312 312
298 298 299 299 299 299 300 300 299 299 298 298 299 300 302 301 300 299 301 303 302 303 305 308 307 307 313 309 310 310 312 315 317 318 316 319 320 314 309 311 312 313 313 312 314 315 313 312 311 309 309 309 308 308
296 297 298 298 299 299 299 299 298 298 298 301 303 303 300 299 300 302 304 304 304 306 307 308 308 308 311 314 312 309 309 313 319 318 319 319 317 304 302 304 307 309 310 310 310 310 311 311 310 308 306 306 305 304
296 297 296 297 297 297 297 297 297 299 301 301 302 300 299 297 301 306 306 305 307 307 310 311 311 312 308 311 315 314 311 311 320 312 320 313 302 299 298 300 300 301 303 306 306 307 306 306 306 304 302 298 294 291
296 297 298 298 297 296 296 298 299 299 302 304 304 304 306 304 307 311 307 306 308 308 308 310 313 312 311 310 312 315 321 316 307 310 307 303 299 297 296 296 295 294 295 295 294 293 292 292 291 291 291 290 289 288
296 297 297 298 297 298 298 298 298 298 301 303 306 305 306 307 302 300 301 304 301 301 304 306 310 308 304 306 304 314 306 309 314 311 305 299 297 296 294 293 291 291 290 290 290 290 289 289 289 289 289 289 288 288
297 297 298 297 297 298 298 298 298 297 294 297 297 299 298 297 297 296 296 300 298 298 299 304 305 304 305 307 305 309 312 306 303 301 297 297 295 294 293 292 291 290 289 289 288 288 287 287 287 286 286 285 284 283
297 297 298 298 298 298 298 298 298 297 295 293 290 292 291 295 295 293 293 296 294 294 298 301 304 308 305 304 301 302 302 299 297 294 293 293 292 291 291 290 289 289 289 288 287 286 285 285 284 283 282 282 282 282
299 298 297 298 298 298 297 297 294 293 293 293 291 288 289 289 289 291 292 294 293 297 302 302 300 300 301 299 296 295 294 293 292 291 289 288 289 289 289 288 288 287 287 286 285 285 284 284 283 283 283 281 281 280
298 299 299 297 296 296 295 294 293 293 290 289 290 289 288 288 289 291 292 293 298 297 296 295 295 294 295 296 293 291 292 290 288 287 287 287 286 285 286 286 285 284 284 284 284 284 284 284 284 284 283 282 282 281
298 297 297 298 297 298 297 296 293 291 290 289 288 288 288 288 288 289 291 290 291 291 292 290 290 290 289 288 289 289 291 289 287 286 284 282 283 284 283 283 282 282 282 282 282 281 281 281 282 282 282 281 281 281
297 297 297 298 297 298 297 296 293 293 292 291 291 290 289 288 288 289 290 291 289 287 286 285 285 284 285 284 285 285 287 288 286 285 283 282 281 281 281 282 282 281 281 280 280 280 280 279 279 278 278 279 279 278
295 294 295 295 294 294 296 297 295 294 294 294 293 291 290 290 289 289 289 287 287 286 285 284 284 283 282 282 282 282 282 283 284 284 283 282 281 280 280 279 279 279 279 278 277 276 276 276 276 276 275 275 274 274
295 292 293 293 295 294 295 294 296 296 295 294 293 292 291 290 288 287 285 284 284 283 283 283 283 282 281 281 281 281 280 280 280 279 279 279 280 279 278 278 277 276 276 275 275 274 273 272 274 273 273 274 274 272
291 292 292 294 297 297 293 294 294 294 295 294 292 291 290 288 287 286 285 283 282 282 281 281 280 280 280 279 279 279 279 280 280 279 278 277 277 276 276 275 275 275 275 274 273 273 272 271 271 272 272 272 272 272
289 289 291 293 294 293 293 293 293 293 293 293 291 289 288 288 287 285 283 282 281 281 281 281 282 281 280 279 279 278 278 278 278 277 277 277 276 274 274 273 273 273 273 273 272 272 271 271 270 271 270 270 269 270
292 289 292 293 293 294 293 293 293 293 292 291 290 289 287 287 286 285 284 282 281 280 280 280 280 280 280 280 278 276 276 276 276 275 274 276 276 276 274 272 270 269 270 271 271 271 270 269 269 269 269 268 267 268
290 288 291 291 292 293 293 293 292 291 291 290 288 287 287 287 285 284 283 281 280 279 279 280 280 279 278 277 277 275 274 275 274 273 271 271 272 273 273 273 272 269 268 268 268 269 268 268 268 267 268 268 267 266
291 290 288 287 290 290 291 290 290 290 289 289 288 286 286 285 284 281 279 278 278 275 275 277 277 277 276 275 273 272 271 271 271 270 269 269 268 268 268 269 268 266 267 266 267 267 267 267 267 266 266 266 266 265
287 287 287 286 286 287 287 287 287 287 286 285 285 283 283 283 281 279 278 275 275 274 274 273 273 274 273 273 273 272 271 270 269 269 269 269 268 267 266 266 264 264 265 264 264 265 266 266 266 266 265 264 264 264
287 286 284 281 283 282 281 284 283 280 279 283 283 280 277 275 276 275 275 274 274 274 274 273 272 271 271 270 269 269 269 270 271 270 271 271 270 268 266 265 265 265 265 265 265 264 264 264 264 264 263 264 264 264
286 286 284 281 281 281 279 279 278 276 277 277 276 275 274 273 272 273 274 274 274 274 273 273 272 273 272 272 271 269 267 266 266 268 270 269 268 265 265 265 265 264 264 264 264 264 264 263 264 264 264 264 264 262
286 286 284 282 280 279 278 277 276 277 277 277 277 277 276 274 272 271 272 272 272 271 272 271 271 271 271 270 271 270 269 266 263 263 264 265 265 265 265 263 264 263 263 263 263 264 263 263 264 264 264 263 262 262
285 285 283 281 280 278 278 281 281 280 279 279 277 276 275 277 276 273 270 271 272 272 271 271 271 270 268 267 266 265 264 264 265 263 263 263 264 264 263 263 263 263 263 262 263 263 263 262 263 263 263 263 262 261
284 283 283 282 281 281 280 282 281 280 280 279 277 276 276 277 276 273 268 268 271 271 271 270 269 267 265 265 265 265 264 264 263 263 263 262 262 262 261 262 263 262 262 262 262 263 262 262 262 262 261 261 261 260

GFSWCAN_925_thetae_036.txt.gz
Theta_e
298 299 300 301 302 302 302 302 300 300 301 303 302 301 302 302 302 301 301 302 306 308 310 309 309 310 310 310 312 311 313 313 317 316 317 317 320 315 312 313 322 320 324 328 329 327 327 322 320 322 324 327 325 324
299 300 300 301 301 301 301 301 301 300 303 301 300 302 302 302 302 300 302 303 305 308 309 308 309 309 310 309 311 312 313 314 314 315 318 318 324 323 319 320 317 320 320 327 324 327 325 321 321 323 325 326 325 324
300 301 301 302 301 301 301 302 302 301 301 301 302 302 301 302 301 301 303 304 305 307 308 309 308 307 309 310 310 314 314 313 315 315 317 320 320 323 324 320 318 319 316 318 317 322 322 324 324 323 323 324 323 323
301 301 302 301 301 301 301 302 302 302 303 302 302 301 301 300 300 301 304 304 305 307 308 308 308 309 309 310 311 312 314 313 314 316 318 321 322 318 321 318 319 317 319 319 320 317 315 318 320 323 324 323 323 322
300 301 302 301 302 301 301 302 302 301 301 302 301 300 301 301 301 303 304 304 305 307 307 309 307 306 307 308 309 310 312 314 314 314 319 319 318 320 322 320 320 315 316 320 321 320 322 322 320 322 322 320 323 321
301 302 302 302 301 301 301 301 302 301 302 301 300 301 300 300 303 303 302 303 303 304 308 309 307 307 306 307 308 310 312 315 317 317 317 315 315 317 324 319 316 314 314 316 318 321 322 321 320 321 320 320 321 321
301 301 301 301 301 300 301 301 301 301 300 301 301 300 301 301 303 304 305 303 303 303 306 306 307 308 307 307 308 310 311 313 316 316 317 317 318 316 320 320 316 315 316 316 318 318 320 320 320 318 317 318 319 318
302 301 302 301 301 301 301 301 301 301 301 300 300 301 301 301 301 303 302 303 304 304 304 306 306 306 307 310 310 310 313 313 314 316 317 318 318 319 320 317 317 316 317 315 318 318 318 315 314 315 314 316 317 317
301 301 302 302 301 301 300 300 300 300 301 300 300 300 301 302 303 302 301 302 303 305 305 304 306 307 303 311 313 313 314 315 313 317 316 317 319 317 310 309 312 313 314 314 314 315 314 314 314 314 312 312 313 316
300 300 300 300 300 300 299 300 300 299 300 300 301 302 303 302 301 299 301 304 304 305 305 305 305 305 305 306 312 314 314 314 314 316 314 316 314 302 300 301 304 304 308 312 313 313 313 314 315 313 311 311 312 312
299 299 299 299 299 299 299 299 299 300 300 302 303 302 301 300 303 304 304 304 303 305 306 305 305 306 302 306 310 310 310 314 317 317 317 317 309 300 298 297 299 299 302 305 307 308 307 310 312 310 307 302 297 296
299 299 299 299 299 299 299 299 299 301 302 301 300 300 300 301 302 304 305 305 306 307 308 308 308 304 300 309 309 308 311 310 317 317 315 306 300 298 296 295 294 295 297 297 297 297 296 296 297 295 293 292 291 289
298 298 298 298 298 298 299 300 299 301 302 303 304 302 302 302 306 306 305 305 309 303 305 307 306 307 307 309 308 311 310 312 305 309 304 300 296 296 294 293 291 291 291 291 291 290 290 290 289 289 288 287 287 286
297 297 297 297 297 298 299 299 299 301 302 302 304 303 304 302 300 298 299 301 300 300 299 301 308 305 303 305 304 310 305 306 311 308 300 296 294 294 293 292 290 290 289 288 288 288 287 286 286 285 286 285 285 285
297 297 297 298 298 298 298 298 298 296 295 296 297 298 297 296 296 295 296 299 297 296 298 303 303 304 305 306 305 309 309 301 300 298 295 294 292 291 291 290 290 289 288 287 286 286 285 285 285 284 284 283 283 282
298 298 298 298 298 298 298 297 295 296 294 291 290 293 292 294 294 294 294 296 295 294 296 301 304 306 304 303 300 301 299 297 294 293 291 291 290 289 289 288 288 287 287 286 286 285 284 283 283 282 282 281 281 281
299 299 297 298 299 296 296 296 292 291 291 293 291 290 291 291 292 294 294 294 294 298 302 300 300 301 301 298 295 295 293 292 290 290 288 287 288 287 286 286 286 286 286 285 285 284 284 283 283 282 282 281 281 280
299 297 298 296 297 297 294 293 292 291 289 289 290 289 290 290 291 292 292 293 296 297 296 296 295 293 294 295 293 293 290 288 287 285 286 286 285 284 284 285 284 284 283 283 283 283 283 283 283 283 283 282 281 281
298 297 297 297 298 298 296 295 292 291 290 290 289 289 289 290 289 290 291 292 291 291 292 290 289 289 289 289 291 291 289 287 286 284 284 283 284 284 283 282 282 282 282 282 281 281 280 279 280 281 281 280 279 280
297 297 297 297 298 298 297 296 293 293 292 291 291 290 288 288 288 287 288 289 288 287 286 285 285 285 285 285 286 288 288 287 285 284 283 283 282 281 282 282 282 281 279 278 278 279 278 278 278 277 276 276 277 276
296 295 295 296 295 296 297 297 295 294 294 294 292 291 291 289 286 286 287 286 286 286 285 284 284 283 283 283 283 283 283 284 285 284 283 282 281 280 280 279 279 278 278 277 276 275 276 276 276 276 275 274 273 274
294 294 296 295 295 296 296 297 297 297 295 295 294 292 291 290 289 287 285 285 284 284 284 284 283 282 283 283 283 282 281 281 281 280 280 280 280 280 279 279 278 277 277 276 275 274 274 272 274 274 273 274 274 272
293 294 294 296 297 297 295 295 295 295 295 294 293 291 291 289 288 287 285 283 284 283 282 282 282 281 281 281 281 281 281 280 280 280 279 278 278 277 276 276 276 276 276 275 274 274 273 272 272 272 272 271 271 272
291 292 294 295 296 294 295 294 294 294 294 292 291 290 289 289 288 286 284 283 283 282 283 284 283 282 280 279 279 279 280 279 279 279 278 277 276 275 274 273 272 273 273 273 273 272 272 271 270 271 270 269 269 270
293 290 293 294 296 295 294 294 294 293 293 292 290 290 289 289 288 286 284 283 282 282 282 282 282 281 281 279 278 277 277 277 276 275 275 276 277 277 275 272 271 270 270 271 271 271 270 270 269 269 269 268 267 268
290 289 292 293 293 294 294 294 293 292 291 290 289 288 289 288 287 286 284 282 280 280 281 282 281 279 278 277 277 275 275 276 275 273 272 272 272 273 274 273 272 269 269 269 269 269 269 268 268 268 268 268 267 267
291 290 289 291 292 292 292 292 291 291 290 290 289 289 288 287 285 282 280 280 278 277 278 278 278 278 277 275 274 273 272 272 272 271 270 270 269 269 269 269 267 266 267 267 267 267 268 267 267 267 267 266 266 265
288 289 288 288 287 289 288 288 288 288 287 286 287 284 284 284 282 280 278 277 276 276 275 275 275 275 274 274 274 274 273 272 271 271 271 270 269 268 268 267 266 266 266 266 265 265 266 266 266 266 266 265 265 265
288 286 284 283 283 282 283 285 284 281 280 285 285 281 279 278 278 277 276 276 276 275 275 274 273 273 272 272 271 270 270 270 272 271 272 272 271 269 267 267 267 266 266 266 266 266 265 264 264 264 264 264 265 265
288 287 283 282 282 280 280 280 279 280 279 277 276 276 276 275 275 276 276 276 276 276 275 274 274 275 274 274 272 270 268 267 267 269 270 270 268 267 267 266 266 266 265 265 265 265 265 265 265 266 266 265 265 264
288 287 284 282 280 279 279 279 279 279 279 279 279 277 275 274 273 273 274 274 274 273 273 273 273 273 273 272 272 272 270 267 265 265 265 266 266 267 266 265 265 264 264 265 264 264 265 264 264 265 265 265 264 264
287 286 283 281 280 280 281 284 283 282 282 280 278 277 278 278 277 274 272 273 274 274 272 273 273 271 269 268 267 266 266 266 266 265 265 264 265 264 264 263 264 264 264 264 263 264 264 264 264 264 264 264 263 262
286 285 284 283 283 283 282 284 283 282 282 281 279 279 278 279 277 273 270 271 273 274 272 272 270 268 267 267 267 266 266 265 264 264 263 263 262 262 262 262 263 263 262 262 263 263 264 264 264 263 262 262 262 262

GFSWCAN_925_thetae_039.txt.gz
Theta_e
298 297 297 298 299 300 301 301 301 301 302 302 302 302 302 302 301 301 302 299 302 303 307 307 308 308 307 307 308 307 309 310 309 307 310 310 311 315 315 315 315 315 317 319 320 321 323 317 319 319 317 317 319 318
297 298 300 301 301 302 302 301 301 301 302 302 301 301 301 302 302 301 301 300 301 304 306 307 307 308 307 306 307 308 309 310 309 309 309 310 308 309 311 312 317 318 315 318 321 320 318 315 318 317 319 321 321 319
299 301 301 302 301 301 301 301 302 302 301 301 300 301 301 302 302 302 301 301 300 301 305 303 308 309 309 309 310 312 309 311 310 310 311 312 309 307 308 312 317 316 316 317 315 314 316 314 317 318 321 321 321 319
301 300 302 301 301 301 302 301 301 301 302 301 302 302 302 301 301 301 301 301 302 304 304 305 306 307 308 308 310 310 311 312 310 309 309 310 310 312 308 312 313 317 316 318 317 315 316 316 318 320 320 320 320 319
301 302 301 302 301 301 301 301 301 300 300 300 300 301 301 300 301 301 302 302 303 305 306 308 307 308 309 305 310 310 310 312 310 312 310 311 311 312 312 313 312 313 316 316 316 316 317 318 319 317 316 321 320 320
301 301 301 301 301 301 301 300 302 301 302 302 301 301 301 301 301 303 300 302 304 304 307 306 306 307 306 307 310 310 310 311 312 309 308 312 313 313 309 312 314 313 312 312 315 316 314 313 316 317 318 318 317 317
301 301 300 300 301 301 301 301 302 301 301 301 300 300 301 301 301 303 303 301 304 303 305 302 303 305 306 307 307 308 310 310 311 312 312 311 312 313 304 309 313 312 314 313 314 315 318 316 316 314 314 313 314 314
302 301 301 300 300 300 301 301 301 301 301 301 301 301 302 303 303 303 303 303 304 303 303 300 301 302 303 304 306 306 308 309 311 309 312 313 312 312 309 307 307 306 309 311 311 312 313 312 312 312 311 310 311 311
301 301 301 301 301 301 300 301 300 301 301 301 301 301 301 302 302 301 303 303 303 304 301 298 304 303 302 305 305 306 307 306 310 309 311 313 309 305 303 301 302 302 304 307 309 309 309 310 311 310 309 308 310 308
301 301 300 300 300 300 301 300 300 300 301 301 301 302 301 301 302 302 302 302 302 303 303 300 301 303 304 301 302 303 298 306 306 308 310 309 303 301 298 297 297 297 301 302 305 304 304 304 307 300 298 297 295 294
300 300 300 300 300 300 300 300 300 300 301 302 301 302 300 301 303 302 300 301 302 301 302 301 300 305 302 304 308 301 302 303 306 308 308 307 300 297 295 294 294 294 296 297 299 298 298 298 298 296 293 291 290 289
299 299 299 299 299 299 300 300 300 301 301 302 301 300 301 301 301 301 299 301 301 303 302 303 303 304 301 302 307 305 308 306 309 304 304 300 296 294 293 292 291 291 292 292 292 292 292 291 290 290 288 287 286 284
299 299 298 298 298 298 298 299 301 300 301 302 302 299 303 300 303 299 302 303 305 300 300 302 305 299 300 303 305 304 310 310 304 304 299 295 293 292 291 290 289 288 288 288 287 286 286 286 286 286 286 284 284 283
298 297 297 298 298 298 298 299 301 301 300 299 299 295 298 296 297 296 296 298 298 297 297 298 301 301 299 303 303 309 303 303 304 300 294 292 291 291 290 288 287 286 286 285 285 285 284 284 283 283 282 282 282 282
297 297 298 298 298 298 297 297 295 293 292 292 291 294 293 294 293 294 294 297 295 295 295 300 300 301 303 303 302 305 303 297 296 292 292 290 289 288 288 287 286 285 284 284 283 283 282 282 282 282 282 282 282 281
297 297 298 298 297 297 297 293 292 294 291 287 287 288 287 287 287 292 292 294 294 294 295 298 302 302 300 297 296 296 295 293 291 289 289 287 286 286 286 286 285 285 284 284 283 283 282 282 281 281 281 280 280 280
299 298 298 295 295 293 296 293 290 290 290 290 286 283 284 286 289 292 291 291 292 297 299 299 296 296 297 295 293 292 289 288 287 286 285 285 285 285 284 284 283 283 283 284 284 283 282 282 281 281 281 280 280 279
298 297 296 298 299 298 293 291 290 290 289 289 287 289 288 287 288 291 291 289 293 295 294 293 292 290 290 292 291 287 285 284 283 284 284 283 283 282 282 282 282 281 281 280 280 279 280 281 280 280 280 280 279 278
297 296 298 298 298 297 294 294 292 290 290 289 286 286 288 286 286 286 288 288 288 288 289 288 286 287 286 286 288 286 285 284 283 283 282 281 282 282 281 280 279 278 279 279 278 278 277 277 276 276 277 276 276 277
297 297 297 297 298 296 295 294 293 292 291 289 287 286 285 285 286 285 285 287 286 285 284 283 284 284 284 284 286 285 284 284 283 282 281 280 280 279 279 279 278 277 276 276 276 276 276 276 275 274 273 274 274 273
296 295 295 296 296 296 295 295 294 293 292 291 290 290 287 285 284 283 284 284 284 284 283 283 282 282 282 282 281 281 281 282 282 281 281 280 279 278 278 277 276 276 275 274 273 272 272 274 273 274 272 272 272 273
294 295 295 295 294 295 294 294 295 294 293 292 292 291 289 287 285 284 283 282 282 282 282 281 281 282 282 282 281 281 280 280 279 278 278 278 277 277 277 276 275 274 274 273 272 272 272 272 272 271 271 272 271 271
294 294 295 295 291 290 290 294 291 293 290 291 289 288 286 284 285 284 281 282 282 281 281 281 281 281 281 280 280 280 280 279 278 277 276 275 274 274 273 273 273 273 273 272 272 271 270 271 270 269 269 269 270 270
291 291 290 290 290 289 289 289 291 292 289 288 287 286 286 286 284 281 282 282 282 282 283 281 280 279 278 277 277 278 278 276 275 275 276 274 273 272 271 270 270 270 271 271 270 270 269 269 269 268 268 267 268 268
287 285 288 288 290 288 287 287 288 288 286 287 285 287 285 285 284 283 282 281 281 281 280 280 280 278 276 275 276 275 275 274 273 272 272 273 274 272 270 269 269 269 269 269 269 269 268 268 268 268 267 267 266 267
285 286 289 289 288 288 290 287 286 286 285 286 286 287 284 280 279 282 282 278 277 276 279 277 274 275 275 275 273 273 272 273 271 270 270 270 270 270 270 269 267 267 267 267 267 268 267 267 267 267 267 266 266 265
286 288 290 289 290 290 288 286 287 284 284 283 284 283 279 277 278 280 279 278 275 277 276 277 277 275 274 273 272 272 271 271 271 270 269 268 268 268 267 266 266 266 266 266 266 266 266 266 266 266 265 265 265 265
288 286 284 284 282 284 282 282 281 282 280 282 281 276 276 277 277 278 275 276 275 274 274 273 274 273 272 272 272 271 272 271 271 270 269 268 267 267 267 266 266 266 266 266 266 265 265 264 264 264 264 264 265 265
284 283 281 278 279 279 280 280 279 279 279 281 276 275 275 277 275 276 276 276 275 274 274 273 272 272 271 271 270 269 269 271 271 263 263 264 268 266 267 266 266 265 265 265 265 265 266 265 265 265 265 265 265 265
284 282 279 276 276 277 278 278 280 275 275 274 275 275 275 275 276 276 276 276 275 275 274 274 274 273 273 271 269 268 267 267 268 268 263 263 266 266 266 265 265 265 264 264 264 264 265 264 264 264 264 265 265 264
285 281 279 278 277 276 275 276 277 276 276 274 272 271 271 270 273 273 274 273 273 273 273 273 273 272 271 271 270 269 266 266 266 265 266 266 266 265 265 265 264 264 264 264 264 263 264 264 264 264 264 263 263 263
283 279 276 276 278 278 278 280 278 276 276 272 271 270 271 271 270 272 273 273 274 273 273 273 271 269 269 268 267 267 266 266 265 265 265 264 265 264 263 263 263 263 263 263 263 263 263 263 264 264 263 263 262 262
281 280 278 276 276 278 279 280 279 280 279 275 272 273 271 272 270 271 271 271 272 273 271 270 269 268 268 268 267 266 266 266 265 264 264 264 263 263 262 262 262 262 262 262 261 262 262 262 262 262 261 261 260 260

GFSWCAN_925_thetae_042.txt.gz
Theta_e
298 297 297 297 297 297 298 299 300 300 300 301 301 301 301 301 301 301 301 299 300 300 302 305 306 305 305 305 305 304 306 308 309 309 308 307 306 311 311 313 313 313 314 314 315 317 320 317 318 321 318 318 321 320
297 296 297 298 300 300 301 301 301 301 302 301 301 301 302 302 302 301 301 299 301 301 303 304 305 306 305 304 305 305 307 307 309 309 306 305 306 301 308 310 314 314 314 314 315 315 317 317 318 316 318 320 320 318
296 299 300 300 301 301 301 301 301 301 301 301 301 302 302 302 302 302 301 300 301 301 299 300 305 306 306 307 305 307 306 308 311 309 307 307 307 304 305 308 309 311 313 316 317 315 315 315 315 317 316 318 318 318
299 300 301 301 301 301 301 301 301 301 301 302 301 302 302 302 302 302 300 300 300 301 302 302 302 304 306 307 308 307 307 310 308 306 308 308 305 307 304 308 308 312 315 316 315 314 314 314 315 316 314 318 318 316
301 301 301 301 301 301 301 301 300 301 302 302 301 301 301 302 301 301 300 300 301 301 301 303 304 305 308 307 308 309 309 308 308 309 305 307 307 309 308 310 308 312 314 315 314 312 311 312 314 314 314 317 318 317
301 301 300 301 301 300 301 300 300 300 301 301 300 301 300 300 302 301 301 300 300 303 307 305 305 307 307 307 308 308 308 308 309 311 305 308 309 308 306 309 311 308 307 310 312 311 313 314 312 314 316 315 319 317
301 300 300 301 301 301 301 301 301 301 301 300 302 302 302 301 300 301 301 301 301 301 306 305 307 305 305 307 307 308 309 310 308 310 310 308 309 310 301 307 306 306 303 308 306 311 314 312 312 310 311 310 312 312
301 300 300 301 301 300 300 301 301 300 301 301 301 300 301 301 301 302 302 301 300 302 302 302 304 305 302 302 305 306 306 307 309 309 309 310 309 309 307 301 301 301 302 304 303 305 306 308 306 305 306 308 305 302
301 301 300 301 301 301 300 300 300 300 300 299 300 300 301 301 302 302 301 302 301 303 299 296 299 306 301 302 302 304 305 304 307 307 307 310 303 299 298 298 297 297 299 301 303 302 303 301 299 298 298 297 296 294
300 301 300 301 301 300 301 300 301 299 299 301 301 300 300 301 302 302 302 302 302 302 300 298 297 301 304 301 302 301 298 304 307 306 309 304 299 296 294 294 294 294 297 297 301 301 300 300 296 294 292 291 290 289
300 300 300 300 300 300 300 301 301 301 301 301 300 300 299 301 302 301 300 300 301 301 299 299 297 303 301 301 306 297 300 301 306 305 306 301 296 294 292 291 290 292 293 293 295 294 294 294 293 291 289 287 286 285
300 300 299 299 300 300 300 300 300 300 301 300 300 300 300 300 297 299 298 298 300 304 300 298 300 301 301 302 305 304 304 304 306 302 300 296 293 291 290 289 288 288 288 288 288 288 288 288 287 286 286 285 284 283
299 298 298 298 298 299 300 300 300 301 302 302 299 298 298 294 293 295 301 303 303 299 298 300 303 300 300 301 303 304 307 307 303 298 293 292 290 289 288 287 286 285 286 286 285 284 284 283 283 283 283 282 282 281
298 298 298 297 297 296 298 300 301 299 297 294 293 290 289 290 292 293 294 295 296 297 296 297 300 301 299 302 304 306 301 300 298 294 291 289 288 288 287 286 284 284 283 283 283 283 283 282 282 282 281 281 281 280
297 296 295 295 297 295 296 294 294 292 289 289 289 289 288 290 289 290 291 293 294 295 295 299 300 301 301 300 297 299 295 293 292 289 288 287 287 286 286 285 284 284 283 282 282 282 281 281 281 281 280 280 280 280
298 297 295 293 296 296 294 293 291 292 288 286 286 285 285 284 286 287 290 292 292 293 295 297 300 300 295 294 292 293 292 290 288 287 286 285 284 284 284 284 284 283 283 282 282 281 281 280 280 280 279 279 278 279
298 297 296 298 293 293 293 291 289 288 285 284 284 279 280 281 286 289 290 290 290 295 297 295 292 294 294 293 289 287 286 285 284 283 283 283 283 282 282 281 281 280 280 279 280 281 280 280 280 279 279 278 278 277
297 296 297 297 298 294 291 290 290 288 286 285 284 286 284 284 284 286 287 288 290 294 292 291 290 288 289 290 286 284 284 284 283 283 282 281 280 279 279 280 279 279 279 278 278 277 277 278 278 277 278 278 277 276
297 297 297 297 295 294 292 292 290 288 287 284 284 284 283 284 284 284 286 286 286 286 287 285 284 284 284 285 283 283 282 282 281 281 280 280 280 279 278 277 277 276 277 277 277 276 275 274 274 274 274 274 275 275
296 295 296 297 297 294 292 291 290 289 288 286 284 284 283 283 283 283 283 285 284 284 282 282 282 282 284 284 283 282 282 282 281 280 279 279 278 277 277 276 275 274 274 273 273 273 273 273 272 272 272 272 271 271
296 295 295 295 295 295 294 293 292 291 290 288 287 285 284 283 282 282 282 283 282 282 282 281 281 281 281 281 281 280 280 281 280 279 279 278 277 276 275 274 273 273 272 271 271 271 271 270 271 271 271 270 270 270
293 294 295 294 293 292 293 292 293 291 291 290 290 289 287 283 281 282 282 281 281 281 281 281 281 281 280 280 280 279 278 278 277 276 276 275 275 274 273 273 272 272 271 270 270 270 269 269 270 270 270 270 269 269
293 293 293 290 289 287 290 291 292 293 290 289 288 287 284 281 283 283 281 282 281 280 279 279 279 279 279 279 278 278 277 276 275 273 272 272 271 271 271 270 271 271 270 270 269 269 269 268 268 268 269 269 268 268
291 289 288 285 286 286 283 285 289 289 286 286 286 286 286 281 282 279 281 281 281 281 279 278 277 277 276 275 275 275 274 274 273 273 272 271 270 269 269 269 269 269 269 269 269 268 268 268 267 267 267 267 267 267
286 285 284 284 284 284 282 282 282 284 282 282 281 281 281 281 278 277 278 278 276 276 275 277 276 275 273 271 272 273 273 273 271 271 271 271 270 269 268 267 267 267 268 268 268 267 267 267 267 266 266 266 266 265
284 284 288 285 283 286 284 282 281 281 280 282 283 281 277 275 275 277 279 273 274 271 271 268 272 272 272 272 271 271 272 271 270 269 268 270 270 269 267 265 265 265 266 267 267 267 266 266 266 266 265 265 265 265
284 286 287 284 284 284 282 281 282 280 281 281 279 278 273 271 273 277 276 275 273 274 275 274 273 272 272 271 271 271 271 270 270 268 268 267 267 267 267 266 265 265 265 265 265 265 265 265 265 265 265 265 265 265
282 280 278 275 277 278 275 274 275 276 276 280 276 272 271 271 274 274 272 274 274 275 274 274 274 273 272 271 271 271 270 269 269 268 267 267 266 266 266 265 265 265 265 265 265 265 265 264 264 264 264 264 264 264
278 276 276 272 273 273 276 273 274 277 276 275 269 270 274 274 271 274 274 274 274 273 272 271 270 271 270 269 268 269 270 269 268 261 261 259 265 265 265 265 265 265 265 265 265 265 265 264 264 264 265 265 264 264
278 274 274 270 271 274 275 270 268 266 271 271 274 275 273 272 274 275 274 274 273 273 273 272 271 271 270 270 267 267 267 267 269 268 260 259 265 265 265 265 264 264 264 264 264 264 264 264 264 264 263 263 263 263
277 273 273 273 274 272 269 270 274 273 268 266 264 266 267 268 273 273 274 274 274 273 273 272 271 271 270 269 269 267 265 265 265 266 266 265 265 265 264 264 264 264 263 263 263 263 263 263 263 263 263 263 262 262
273 269 270 274 274 273 271 270 267 266 263 264 264 259 264 264 265 270 271 273 273 273 272 272 271 269 268 267 267 267 266 266 265 265 265 264 264 263 263 262 263 263 263 262 262 262 262 262 262 261 261 260 260 260
273 274 269 270 272 272 271 273 271 273 268 265 269 267 266 266 267 269 271 271 273 273 272 271 270 269 268 267 266 266 266 265 265 264 264 264 263 262 262 262 262 262 261 261 261 261 261 260 260 259 259 258 258 258

GFSWCAN_925_thetae_045.txt.gz
Theta_e
295 295 296 297 297 297 297 297 297 298 298 298 298 299 299 300 300 299 299 301 300 300 301 304 305 305 305 304 304 303 306 306 307 306 309 308 303 307 309 311 311 312 313 313 315 317 316 313 318 319 317 315 318 320
295 296 298 297 297 298 298 299 299 300 300 300 300 300 300 301 301 300 300 300 301 301 301 301 303 304 304 304 304 304 305 306 306 307 306 304 303 299 307 310 310 311 309 309 312 312 312 317 318 316 315 317 318 318
297 297 296 297 299 300 300 301 301 301 301 301 301 301 301 301 301 301 301 300 300 301 301 299 301 302 304 305 304 305 304 305 307 304 303 305 305 302 305 305 309 309 309 312 312 312 312 312 313 314 315 317 316 316
296 297 298 300 301 301 301 301 301 301 301 301 301 301 301 301 301 301 301 300 299 300 302 298 300 300 302 305 306 306 304 307 306 305 305 305 305 305 302 307 306 306 310 311 311 312 313 313 313 314 315 316 314 316
299 300 301 301 301 301 301 301 301 300 300 301 301 301 301 301 301 301 301 300 300 301 300 298 302 302 302 302 307 306 307 306 306 307 302 304 305 308 307 305 305 309 311 311 310 313 312 313 311 313 315 314 315 316
301 300 300 301 301 301 301 300 300 301 302 301 301 301 301 301 302 301 300 300 300 300 301 298 301 304 304 306 307 306 307 307 307 307 304 305 306 309 309 310 308 306 305 305 309 306 307 309 312 309 312 311 314 314
300 300 301 301 301 301 301 300 301 301 301 301 302 302 302 302 302 300 301 300 300 300 302 303 306 304 305 306 306 306 306 308 307 308 306 307 308 309 304 309 303 302 301 303 302 305 311 309 307 302 301 304 300 298
300 300 301 300 301 301 300 301 301 302 301 300 300 302 301 300 300 302 302 300 300 299 300 303 305 305 303 305 308 306 308 307 306 305 308 307 308 305 302 298 298 297 299 302 300 302 302 302 299 296 296 296 294 293
300 300 301 300 300 301 301 301 301 301 301 301 301 299 300 300 302 302 300 300 300 300 301 300 304 307 302 303 303 304 305 304 306 304 308 307 299 296 295 294 294 294 296 298 298 301 300 299 296 293 292 291 290 289
301 301 300 300 299 299 300 300 300 300 300 300 300 298 297 300 301 301 300 299 297 299 299 301 298 304 303 301 302 303 300 304 306 307 304 299 296 293 291 291 290 291 294 295 298 299 296 297 294 291 289 288 288 286
301 300 300 300 300 300 300 300 300 300 302 300 300 296 300 301 301 300 300 300 301 299 298 299 298 302 299 302 303 299 300 299 304 308 301 298 294 291 290 288 288 289 290 290 292 290 289 290 289 288 287 286 285 285
299 300 300 300 300 300 300 300 300 300 300 300 300 299 299 296 295 297 297 295 301 303 299 296 298 300 301 302 305 304 302 303 306 299 295 292 291 289 288 287 286 286 286 286 286 286 286 285 285 284 284 283 282 281
297 297 299 300 300 300 300 301 301 300 301 299 295 293 293 289 290 292 300 300 300 299 296 299 302 300 300 301 302 304 306 306 298 294 291 290 288 287 286 285 284 284 284 284 284 283 283 282 282 282 282 281 280 280
295 297 296 296 297 297 299 300 300 297 294 291 291 288 287 287 289 290 292 292 293 293 295 296 300 301 299 301 303 303 297 295 293 288 288 288 287 286 284 284 283 283 282 282 282 281 281 280 280 280 280 279 279 278
295 294 296 294 293 294 293 292 292 290 288 289 287 286 287 287 288 289 289 291 292 293 295 298 299 298 295 297 293 294 293 289 289 286 285 286 285 285 284 283 283 282 282 281 281 280 280 279 279 279 278 278 278 277
297 297 295 293 296 295 294 291 290 290 287 286 285 285 283 284 286 287 289 290 290 290 294 296 298 296 292 293 288 288 288 286 284 284 284 283 282 281 281 280 280 281 281 281 281 280 279 279 278 278 277 277 277 276
297 296 295 292 292 292 292 289 288 286 285 284 284 282 281 280 283 285 287 288 287 292 295 293 291 293 292 289 287 285 284 284 283 282 282 282 281 280 280 280 280 279 279 279 278 278 278 278 278 277 277 276 275 275
297 296 297 297 297 293 290 290 287 285 284 282 281 283 281 283 283 284 285 286 289 291 290 290 288 285 285 286 284 283 283 282 281 281 280 279 279 279 278 278 278 278 277 276 276 275 275 276 276 276 276 275 274 273
296 296 295 295 293 293 291 289 287 284 283 280 282 282 283 283 283 284 285 285 285 286 286 285 284 284 284 283 282 282 281 281 280 280 279 278 278 277 276 276 275 275 275 275 274 273 272 272 272 272 272 272 271 271
295 295 296 296 296 292 292 289 288 286 283 283 284 283 282 282 282 283 283 284 284 283 281 281 281 282 282 282 282 281 281 280 280 278 278 277 276 275 274 274 274 273 272 272 271 272 271 271 271 271 271 271 269 268
294 294 294 295 294 293 291 289 288 287 286 285 284 283 283 282 282 282 282 282 281 282 281 281 280 280 280 280 280 280 279 279 278 277 277 276 275 274 273 272 271 271 270 269 269 269 269 268 269 270 270 269 269 268
293 295 294 294 290 291 290 289 290 289 288 288 288 287 283 280 279 281 281 279 279 279 280 280 280 279 279 279 278 277 277 276 275 274 274 274 273 272 270 271 270 269 268 268 268 268 268 269 269 269 269 268 268 267
291 293 291 289 287 288 291 290 290 291 289 289 286 285 282 277 279 281 278 280 280 279 278 278 278 277 276 276 275 275 275 274 272 271 270 270 269 270 269 269 270 269 268 268 268 268 267 268 269 268 268 268 267 267
291 287 287 285 287 285 282 284 288 287 284 283 283 283 280 277 279 278 279 280 280 279 278 277 276 275 274 274 273 273 273 272 271 271 270 270 269 268 268 268 268 268 268 268 268 267 267 267 267 267 267 267 266 266
286 284 282 282 281 283 282 281 281 284 282 281 281 280 278 278 276 274 275 276 274 271 272 275 274 272 270 267 270 271 272 272 271 270 270 269 268 267 266 266 267 267 267 267 267 267 267 266 266 266 265 265 265 265
285 283 284 282 282 285 282 280 279 279 278 280 280 278 274 273 273 275 277 272 273 270 267 267 269 270 271 271 270 270 270 271 271 268 268 269 269 268 266 264 264 265 266 266 267 266 266 266 265 265 265 265 264 264
284 285 283 281 282 282 278 277 279 279 279 279 278 272 272 270 271 275 275 273 273 273 273 273 273 271 270 270 270 270 270 269 269 267 267 267 267 267 267 266 265 265 265 265 265 265 265 265 265 264 264 264 264 264
277 277 275 271 274 274 271 270 270 273 275 279 274 270 269 270 274 273 271 273 273 273 273 272 271 271 271 270 270 269 268 268 267 267 266 266 266 265 265 265 265 265 265 265 265 265 264 264 264 264 264 264 264 264
274 270 273 268 270 272 274 270 271 274 275 270 266 268 272 273 270 272 272 273 273 273 271 270 269 270 269 269 269 270 269 269 268 259 258 256 264 265 265 265 265 264 264 264 264 264 265 264 264 264 264 264 264 264
274 270 270 267 270 271 269 267 267 266 270 270 273 274 272 270 272 273 273 273 272 272 271 271 270 270 268 268 266 266 267 268 268 268 258 257 265 265 264 264 264 264 264 264 263 263 263 263 263 263 263 263 263 262
273 269 272 272 273 269 267 265 272 271 264 265 262 266 266 268 272 272 273 273 273 272 271 270 270 270 270 269 269 267 266 265 266 266 266 266 265 264 264 264 263 263 263 263 263 262 262 262 262 262 262 262 261 261
269 268 270 272 272 269 268 263 262 263 260 263 262 257 261 262 263 268 270 272 272 272 272 271 271 269 269 268 267 267 266 265 265 264 264 264 263 263 262 262 262 262 262 262 261 261 261 261 261 261 260 260 259 258
268 268 265 267 269 268 268 270 269 267 263 263 266 262 261 261 265 268 270 271 272 273 272 271 270 268 267 266 266 266 265 265 264 264 264 263 263 262 262 262 262 261 261 261 261 260 260 260 259 259 258 258 258 257

GFSWCAN_925_thetae_048.txt.gz
Theta_e
294 294 294 295 295 296 296 297 297 297 298 298 297 298 299 298 299 300 300 300 300 299 302 303 303 305 305 304 305 303 305 305 306 307 306 306 304 306 307 309 311 311 310 312 313 315 312 309 317 314 312 313 313 312
294 295 295 295 296 296 297 297 297 297 297 297 297 297 297 297 297 297 299 300 300 300 301 301 303 303 304 303 304 303 303 305 304 304 304 302 302 298 306 308 308 310 308 309 310 310 308 313 315 315 313 312 314 314
295 295 295 296 297 297 297 297 298 300 299 298 298 299 298 298 299 298 299 299 299 299 300 301 301 301 303 304 304 305 303 305 306 302 302 303 304 300 303 304 308 308 307 309 309 308 309 308 309 310 313 314 315 313
298 298 297 297 297 297 298 300 301 301 301 301 301 301 300 299 299 300 300 300 299 300 301 299 299 300 301 303 304 304 303 306 306 306 305 302 302 302 301 305 304 305 307 309 309 308 309 309 311 311 311 312 314 313
298 299 300 300 301 301 301 301 301 301 300 301 301 301 301 300 300 301 301 300 299 299 300 297 300 300 301 303 304 305 305 305 306 307 306 304 302 305 303 304 303 307 308 308 307 307 309 309 309 304 308 308 308 313
301 300 299 300 301 300 301 301 301 300 300 300 301 301 301 301 300 302 297 300 299 299 301 299 297 302 300 300 302 305 306 306 306 307 306 304 304 307 303 302 307 305 304 304 308 303 303 304 305 300 301 301 301 300
300 301 300 300 301 301 301 300 300 300 301 301 300 300 301 301 301 300 300 300 300 300 301 299 298 301 302 303 303 305 305 306 307 306 307 305 306 307 300 304 302 299 298 299 302 302 306 304 302 297 296 296 295 293
300 300 300 300 300 300 301 301 301 300 301 301 301 301 301 301 301 301 301 300 300 300 300 297 304 305 303 302 306 303 306 307 307 303 306 307 307 304 306 295 295 294 295 299 298 298 301 299 295 293 292 292 291 289
300 300 300 301 300 300 300 300 299 299 302 301 302 301 300 299 301 301 300 300 300 300 300 301 303 305 302 304 304 304 304 305 305 305 306 306 298 293 293 292 291 291 292 295 295 297 297 297 293 291 290 289 288 287
300 299 300 299 300 299 299 300 298 299 299 299 299 298 297 301 300 300 299 299 299 298 299 297 299 304 303 301 302 303 300 305 307 304 299 297 293 291 290 289 289 289 290 291 293 295 292 293 291 288 287 287 286 285
299 299 299 299 300 300 300 300 300 300 300 299 298 300 300 300 300 298 299 300 300 301 300 300 299 304 299 303 303 297 302 300 307 306 300 296 292 290 288 287 286 286 287 287 288 288 287 287 287 286 285 284 283 282
300 300 300 300 300 300 301 300 300 299 299 299 299 298 296 295 296 300 300 299 301 303 300 301 302 301 301 303 303 303 302 301 304 296 294 290 290 287 286 285 285 285 285 284 284 284 284 284 283 283 282 282 280 279
299 299 299 300 299 299 300 300 299 300 300 298 294 292 293 287 288 289 301 299 299 297 296 299 301 299 300 301 303 302 305 301 295 292 290 289 287 286 285 284 284 283 283 283 282 282 281 281 280 280 279 279 278 278
295 293 295 295 294 294 295 297 295 294 292 290 289 285 283 283 287 290 289 290 293 293 295 296 300 300 298 300 300 299 293 291 288 285 286 286 285 284 284 283 282 281 281 281 280 280 280 279 278 278 278 278 278 277
297 294 294 294 292 291 291 291 291 290 287 288 285 284 285 286 287 287 287 289 290 290 294 298 296 294 293 294 291 292 288 284 287 284 283 284 283 283 283 282 281 281 280 280 279 279 279 278 278 277 277 276 276 276
297 295 293 291 292 293 291 290 289 288 286 285 283 283 282 284 284 284 285 286 288 288 293 295 295 290 290 291 286 285 286 283 281 280 282 281 281 281 280 280 280 280 279 279 279 278 278 277 277 276 275 275 274 274
297 296 296 296 294 289 289 288 286 285 284 283 281 280 279 279 281 283 285 286 286 291 292 291 290 290 288 286 284 284 279 279 281 281 281 281 280 279 279 279 278 278 278 278 277 278 277 277 276 276 275 274 274 273
296 296 295 296 296 291 289 287 285 284 282 281 281 282 281 282 283 284 284 285 288 290 289 288 287 284 284 284 283 282 281 281 280 280 279 278 277 277 277 277 277 276 276 275 275 275 275 275 275 275 274 273 272 271
296 295 296 293 293 291 288 286 285 283 281 280 281 283 283 283 283 283 284 285 284 285 286 285 282 283 281 281 281 281 281 280 279 278 277 277 276 276 275 275 274 274 274 274 273 272 272 271 271 271 271 270 269 270
295 294 295 296 293 290 289 287 285 284 283 283 284 283 282 282 282 282 283 284 283 283 281 281 281 282 282 281 281 281 280 280 279 277 276 275 274 274 273 273 273 272 272 271 270 271 270 270 270 270 270 269 269 267
294 294 295 294 293 291 288 287 286 284 284 285 284 284 283 282 281 280 280 282 281 281 280 280 279 279 278 278 278 278 278 277 277 276 275 274 273 272 271 270 270 269 269 268 268 268 268 267 268 268 268 268 268 268
292 294 293 292 289 288 288 287 287 286 287 287 287 285 282 277 276 279 279 278 279 278 279 279 278 278 277 277 277 276 275 274 273 273 273 272 272 270 268 269 268 267 267 267 268 267 267 267 268 268 268 267 267 266
291 292 290 287 285 286 291 289 289 290 285 286 286 283 279 275 277 280 278 279 279 278 277 277 276 276 275 275 274 273 273 272 271 270 269 268 268 269 268 268 269 268 267 267 267 267 268 267 268 268 267 267 266 266
290 285 281 280 284 281 281 281 286 285 284 284 283 281 279 276 278 277 278 278 278 277 276 276 276 275 274 273 272 272 271 270 270 270 269 269 268 267 267 267 268 268 267 267 267 267 267 267 267 267 267 267 266 266
285 283 281 281 281 282 280 277 278 282 280 279 281 279 277 277 275 273 274 275 273 270 271 273 272 271 268 267 270 271 271 271 270 269 269 269 267 267 266 266 266 266 267 267 267 266 266 266 265 265 265 265 265 265
283 280 281 280 279 283 280 279 278 278 277 278 277 275 271 271 272 272 275 268 272 267 264 265 269 270 270 271 270 270 270 270 270 268 267 268 268 268 265 263 264 265 266 266 266 266 266 265 265 265 264 264 264 264
277 278 280 278 280 280 275 274 277 277 276 277 275 270 270 270 271 274 273 271 270 272 272 272 272 271 270 269 269 269 269 269 269 267 266 267 267 266 266 265 264 264 265 265 265 264 264 264 264 264 264 264 264 264
275 275 274 269 272 273 270 271 271 272 273 277 273 269 268 269 273 272 270 270 271 272 271 271 271 270 270 269 269 268 267 267 267 267 266 266 265 265 265 265 265 265 265 265 264 264 264 264 264 264 264 264 264 263
271 268 271 268 269 269 271 268 269 273 273 267 266 268 271 272 268 270 271 271 272 272 270 269 268 269 269 269 269 268 268 268 268 258 257 256 263 265 265 264 264 264 264 264 264 264 264 264 263 263 263 263 263 263
272 267 269 265 267 269 266 266 266 264 268 269 272 273 271 269 270 272 272 272 272 271 270 270 269 268 268 268 267 267 267 267 267 267 261 257 265 265 265 264 264 264 263 263 263 263 263 263 263 263 263 263 262 262
269 266 269 270 271 269 266 263 270 269 262 264 261 264 265 265 270 270 271 272 271 271 270 269 269 269 270 269 268 267 266 265 265 266 265 265 265 264 264 263 262 262 263 262 262 262 262 262 262 262 262 261 261 260
265 263 268 270 270 266 264 259 260 261 257 262 261 256 259 261 262 267 269 270 271 271 271 271 271 270 269 268 267 266 266 265 264 264 264 263 263 262 262 262 262 262 261 261 261 261 261 260 260 260 259 259 259 258
266 266 264 265 267 267 265 266 266 265 261 262 263 259 257 260 264 267 269 270 271 272 271 270 269 268 267 266 266 265 265 264 264 264 263 263 262 262 262 261 261 261 261 261 261 260 260 259 259 259 258 258 258 258

GFSWCAN_925_thetae_051.txt.gz
Theta_e
294 294 294 294 294 294 294 294 294 295 296 296 297 297 297 297 296 297 298 299 298 299 301 301 302 303 304 304 306 304 305 305 306 306 307 307 308 308 307 311 311 310 312 313 314 315 314 309 316 316 313 314 314 314
296 296 296 295 294 295 295 295 296 296 296 297 297 298 298 297 297 298 299 299 298 299 301 301 302 302 303 303 304 304 305 305 306 306 306 306 307 305 308 310 309 313 311 312 313 313 310 310 314 315 312 314 315 314
297 297 297 296 295 295 296 296 296 297 298 297 297 298 298 298 298 298 297 300 299 295 299 301 302 302 302 303 303 305 304 305 305 305 306 306 307 305 309 308 310 309 307 310 309 310 310 310 309 310 308 311 311 312
296 296 296 297 297 298 298 297 297 297 297 297 297 297 297 298 297 298 297 299 297 298 302 301 299 301 302 303 304 304 304 305 306 307 307 307 307 304 307 307 308 308 308 310 310 309 310 310 309 306 306 306 306 306
298 300 300 299 299 299 299 299 298 299 300 300 300 299 298 298 297 298 297 299 298 300 301 299 299 300 301 302 302 304 304 305 307 307 306 308 304 307 304 305 307 307 309 311 311 307 306 307 307 303 302 302 301 300
299 300 300 300 300 300 300 300 300 300 301 301 301 301 300 300 299 299 298 299 298 299 300 302 299 300 300 302 302 303 304 305 305 306 306 306 305 308 307 308 307 304 302 303 306 303 304 305 304 298 298 297 297 295
300 300 300 300 300 301 301 301 300 300 300 301 300 301 301 301 300 297 299 299 299 299 301 300 299 300 300 300 302 304 304 305 306 306 306 306 307 308 307 309 299 297 297 298 301 301 306 303 300 295 294 294 292 290
299 300 300 300 300 300 300 300 300 300 300 300 300 301 301 301 300 300 300 300 299 298 300 299 300 303 302 302 303 303 304 304 303 303 304 307 307 306 310 294 293 292 293 297 295 296 297 299 294 292 291 291 290 288
299 299 299 299 299 299 300 301 300 300 301 301 300 301 301 298 299 300 300 300 300 299 300 299 300 303 302 302 303 304 304 306 305 305 307 304 300 304 292 291 290 289 291 292 292 294 296 295 291 289 289 289 289 287
299 299 300 299 300 298 300 301 301 302 302 300 299 297 297 301 300 299 299 299 300 300 300 300 298 303 302 302 304 303 303 305 307 305 298 296 293 290 288 287 287 287 288 289 291 293 291 291 289 287 286 286 285 285
300 300 299 299 300 299 299 300 300 299 300 298 299 300 300 299 298 299 299 300 301 300 298 299 298 303 300 304 304 301 304 304 307 303 300 295 293 290 287 286 286 286 286 287 287 286 286 286 286 285 283 283 281 280
299 299 299 299 300 300 299 299 300 300 299 299 298 296 294 293 297 301 299 300 301 303 300 300 301 300 300 297 302 301 304 302 305 296 294 292 289 286 285 284 284 284 284 284 283 284 284 283 283 282 282 280 279 278
297 297 294 297 299 299 299 299 299 298 296 294 292 290 292 288 288 291 299 298 298 296 295 299 301 298 300 302 302 304 304 298 293 291 290 288 286 285 284 283 283 282 282 281 281 280 280 280 279 279 278 278 277 276
294 292 291 290 291 291 296 300 300 295 291 290 291 287 286 285 287 289 289 290 291 293 293 297 300 298 296 297 297 297 292 291 289 288 287 286 284 283 283 282 282 281 281 280 280 279 278 278 277 277 277 276 275 275
294 293 293 292 292 290 290 291 292 290 286 287 286 286 286 285 286 286 286 288 288 289 293 298 292 294 293 292 290 290 289 287 287 286 284 284 283 282 282 282 281 280 280 279 278 278 277 276 276 275 275 275 275 274
296 295 296 292 289 290 289 289 288 287 286 283 282 283 282 284 284 283 284 286 287 287 292 293 290 290 290 290 286 285 288 285 283 282 282 282 281 280 280 280 279 279 279 278 278 277 276 276 275 275 274 274 273 273
296 295 295 296 291 287 288 287 284 284 283 282 282 280 281 281 282 283 284 285 286 290 291 291 288 289 286 285 284 283 282 281 282 282 281 280 280 279 279 278 278 277 277 277 277 277 276 276 275 275 274 274 273 273
296 295 294 295 293 289 286 285 285 283 282 281 281 282 282 282 283 284 285 285 288 289 288 286 286 284 284 284 283 282 281 280 280 279 279 278 277 277 277 277 276 276 276 275 275 275 275 275 274 274 273 272 271 271
295 295 295 292 291 289 287 286 284 283 282 282 283 283 283 283 282 283 284 285 284 285 285 284 283 283 282 282 281 281 281 280 278 277 277 276 276 276 275 275 274 274 274 274 273 273 272 271 272 271 271 270 270 270
294 295 292 292 291 289 288 286 285 284 283 283 284 283 282 282 281 282 282 284 283 282 281 280 280 281 281 281 281 280 279 279 278 277 276 275 274 274 273 273 273 272 272 271 270 271 271 270 269 269 269 268 268 266
294 294 294 292 291 289 287 286 285 284 284 285 285 284 283 282 280 280 280 281 280 280 280 280 279 278 278 278 278 278 278 278 277 277 275 274 273 272 271 270 270 270 269 269 269 268 268 268 267 267 267 267 267 265
292 293 292 292 288 287 287 286 286 286 288 287 286 283 280 279 278 280 279 278 278 278 278 278 278 277 277 276 276 275 275 274 273 273 272 272 272 271 269 269 269 267 267 267 267 266 266 266 266 266 266 266 266 266
292 292 288 287 285 284 288 288 288 288 287 287 284 281 279 277 279 280 278 279 278 277 277 276 276 275 274 274 273 273 273 272 271 270 269 269 268 268 268 267 267 267 267 266 266 265 265 266 266 266 266 265 265 265
289 283 280 280 283 283 279 280 286 284 284 284 282 280 278 277 278 278 278 277 277 276 276 276 275 275 274 272 272 271 271 270 269 269 269 269 268 267 267 266 266 267 266 266 266 266 266 266 266 266 266 265 265 265
283 279 279 278 278 280 279 277 279 282 280 279 279 277 277 277 276 275 276 276 274 272 271 273 272 272 271 271 270 270 271 270 270 269 268 268 267 267 266 265 266 266 266 266 266 266 265 265 265 265 264 264 264 264
280 278 278 277 277 281 279 279 277 278 278 278 276 274 273 273 274 274 276 272 274 271 268 268 271 272 271 271 271 270 269 270 270 268 267 268 267 266 265 265 265 265 265 266 266 265 265 265 264 264 264 264 264 263
275 274 278 276 278 278 276 275 277 276 275 276 273 270 270 269 270 274 273 271 272 271 271 271 271 271 270 268 268 268 269 269 269 267 266 266 266 266 266 265 264 264 264 264 264 264 264 264 264 263 263 263 263 263
273 274 274 269 271 271 269 270 270 271 274 276 272 269 268 268 273 272 271 269 270 270 270 270 270 270 269 268 267 267 267 267 267 266 266 265 265 265 265 265 265 264 264 264 264 264 264 264 263 263 263 263 263 263
271 268 270 266 268 268 270 268 270 272 272 268 267 270 272 270 267 269 269 269 270 270 269 268 267 268 268 268 268 267 267 267 267 262 262 263 262 265 265 264 264 264 264 263 263 263 263 263 263 263 263 262 262 262
270 267 268 264 267 269 266 267 267 266 268 269 272 272 270 269 268 269 270 270 271 270 269 269 268 269 268 268 266 266 266 267 266 266 264 264 264 265 264 264 264 263 263 263 263 263 263 262 262 262 262 262 261 261
268 266 268 269 270 270 267 263 268 268 263 265 263 265 266 266 269 269 270 270 270 269 269 268 268 268 268 268 267 266 266 265 265 265 265 265 264 264 263 263 262 262 262 262 262 262 261 261 261 261 261 260 260 259
264 262 267 269 269 267 264 261 260 263 261 265 265 259 262 264 264 267 268 268 269 270 270 270 270 269 268 267 267 266 265 265 264 264 263 263 263 262 262 262 262 262 261 261 261 261 260 260 260 259 259 259 258 258
266 266 264 267 268 267 264 265 265 265 263 264 263 258 257 262 265 266 267 269 270 270 271 270 269 267 266 266 265 265 264 264 264 263 263 263 262 262 262 261 261 261 261 261 260 260 260 259 259 259 259 258 258 258

GFSWCAN_925_thetae_054.txt.gz
Theta_e
294 295 295 295 296 296 294 294 294 293 293 293 293 294 294 294 294 295 295 296 297 297 298 301 300 301 302 303 304 305 306 305 305 310 309 308 309 308 308 311 311 311 312 313 312 314 315 311 312 314 319 315 314 314
295 296 297 297 297 297 296 295 295 294 294 294 294 294 295 295 296 296 296 296 297 297 299 299 299 301 301 302 304 304 306 306 307 308 307 308 309 309 308 309 310 314 311 312 311 313 312 313 315 313 314 315 315 315
296 298 297 296 296 297 296 296 295 295 295 295 295 296 297 297 297 297 296 296 297 297 298 300 302 301 302 302 302 305 305 306 307 306 308 308 309 308 310 309 309 309 310 313 312 311 311 311 312 312 311 312 311 310
297 296 297 298 299 297 297 296 295 295 296 296 296 297 297 297 298 298 297 297 297 298 301 303 300 302 302 303 302 302 304 304 305 306 308 309 309 307 309 308 309 309 310 311 311 310 310 310 312 310 309 308 307 307
298 299 300 299 300 300 298 297 297 297 297 298 298 298 297 298 298 298 297 298 298 301 304 303 301 300 302 303 303 303 304 305 306 308 307 309 308 308 309 309 308 308 308 311 310 311 310 310 309 306 307 306 305 303
300 300 300 300 300 299 299 300 299 298 297 297 298 297 297 298 298 296 295 298 298 299 302 303 302 301 301 302 303 304 305 306 306 307 307 307 308 308 310 310 308 309 307 306 309 306 307 307 307 302 302 301 300 298
299 299 299 300 300 300 300 300 300 300 300 300 300 299 298 297 297 298 301 299 298 298 301 302 303 303 302 303 304 304 303 305 306 306 307 307 308 308 310 310 303 300 300 301 300 300 306 302 303 298 296 296 295 294
299 299 299 299 299 300 300 300 300 300 300 300 301 299 298 297 298 298 300 299 298 299 301 303 303 304 302 303 304 304 305 304 303 304 305 307 307 308 310 297 297 296 296 299 296 296 296 297 295 293 293 293 294 292
299 299 298 298 300 300 300 300 300 300 300 300 300 301 301 298 299 299 299 299 299 300 303 302 304 304 303 303 303 304 304 304 303 305 306 308 308 309 294 294 293 291 292 293 294 296 296 294 292 290 290 289 291 288
298 299 299 299 299 300 300 300 300 300 300 301 300 296 299 301 299 298 298 297 298 301 302 303 303 304 304 304 305 305 305 305 307 306 301 306 300 291 290 289 288 288 289 290 293 296 292 292 290 287 286 285 284 283
299 299 300 299 299 299 300 300 300 301 300 298 297 299 300 299 300 300 301 303 301 302 301 303 303 304 303 306 305 305 305 306 307 305 307 303 300 291 288 288 287 287 287 287 287 287 287 287 288 286 284 283 282 281
298 299 299 298 299 300 299 300 300 300 300 299 298 297 294 296 301 302 302 301 301 302 301 302 302 302 302 302 307 305 307 306 308 301 305 302 291 288 287 286 285 285 285 285 285 285 284 284 284 283 282 280 279 278
298 299 299 299 298 299 299 299 299 298 297 295 295 293 296 293 298 302 303 303 302 298 299 300 302 301 300 301 303 307 309 304 299 301 299 292 288 286 285 285 284 284 283 282 282 281 281 280 280 279 278 278 277 277
292 292 291 293 295 297 296 296 297 294 293 294 294 292 293 293 293 293 294 295 293 294 296 299 302 302 299 301 299 301 297 299 300 300 294 289 286 285 284 284 283 282 281 281 280 279 278 278 278 277 277 276 276 275
292 290 291 292 291 290 292 293 292 289 288 289 290 290 290 288 288 288 289 291 291 291 295 299 298 299 297 297 295 296 297 297 295 294 288 286 285 284 283 282 281 281 280 280 279 278 277 277 276 276 275 275 275 274
295 296 293 289 289 289 290 291 289 288 287 286 286 289 288 290 289 289 289 291 290 290 294 297 296 297 294 294 294 292 297 295 289 287 285 284 283 282 281 281 281 280 279 279 278 277 277 276 276 276 275 274 273 273
296 296 294 293 287 288 288 287 286 285 285 285 286 285 285 286 286 287 287 288 288 293 296 295 295 292 290 291 289 287 288 287 285 285 284 283 282 281 280 280 279 279 279 279 278 278 277 277 276 276 276 275 274 273
296 296 293 295 292 287 286 286 286 285 285 285 285 285 285 285 286 286 287 287 291 291 291 289 288 289 289 289 288 284 284 283 283 282 282 281 280 280 279 279 278 278 278 277 277 277 277 277 277 276 275 274 273 272
295 294 293 291 290 289 288 286 286 285 285 285 285 284 284 284 284 285 287 287 286 287 287 287 286 286 285 285 285 283 283 282 281 280 279 278 278 277 277 277 277 277 277 276 276 275 274 274 274 274 274 274 274 273
293 291 290 291 290 290 287 287 286 286 286 285 285 283 283 283 284 284 284 284 284 284 283 282 282 283 283 283 283 282 281 281 281 280 279 278 277 277 277 277 277 276 275 274 274 274 274 273 272 272 272 272 272 271
293 292 291 291 290 289 289 287 287 286 286 286 285 284 283 283 283 282 283 283 282 282 281 281 280 280 280 281 281 281 281 281 282 282 280 278 276 276 275 274 274 274 274 274 274 272 272 272 271 270 270 269 269 269
292 291 292 291 290 290 290 288 288 288 287 286 286 284 284 284 284 282 281 281 280 279 280 280 281 280 280 279 278 278 277 277 276 275 275 275 277 275 274 274 274 273 272 272 272 271 271 270 269 269 269 268 268 268
292 291 290 291 291 291 291 289 290 289 289 288 285 284 283 283 282 282 281 280 279 279 278 278 277 277 276 275 275 275 275 276 275 274 274 273 273 272 272 272 272 272 271 270 270 270 269 267 267 268 267 268 268 267
289 285 287 290 291 290 288 289 288 288 288 287 286 284 283 283 282 282 280 279 278 278 279 278 278 277 276 276 276 275 274 274 274 273 273 273 273 271 271 270 270 269 269 269 268 268 267 267 267 267 267 267 267 267
288 283 286 287 287 288 288 288 287 288 288 286 285 285 283 282 283 282 281 280 279 278 277 277 277 277 277 276 275 273 273 274 274 273 272 272 271 271 270 269 269 268 268 269 268 268 266 266 266 266 266 266 266 266
283 281 284 285 287 289 288 288 288 287 286 284 282 280 281 283 282 282 281 279 279 278 277 278 278 277 277 276 276 274 272 272 273 273 270 270 270 271 271 271 270 268 266 266 267 268 267 266 266 265 266 265 264 264
283 281 280 278 281 283 284 284 284 285 284 283 281 280 281 280 280 278 277 276 277 274 274 274 275 276 275 273 271 270 270 269 270 269 268 267 267 267 268 269 268 267 265 265 265 266 266 266 265 265 265 265 264 264
278 278 279 275 276 277 278 278 279 279 280 278 279 277 277 278 278 276 275 272 272 272 271 270 271 271 271 269 269 268 268 267 267 267 267 266 265 265 265 264 265 264 264 264 264 263 264 264 265 264 264 264 263 262
276 275 275 271 274 274 274 275 276 275 274 276 277 276 275 273 271 273 272 271 271 272 271 270 268 268 268 267 266 268 268 268 270 269 270 270 269 267 264 264 264 263 263 263 263 263 264 263 263 263 263 263 262 261
275 275 274 272 272 274 273 272 273 272 272 273 274 273 273 272 270 271 271 272 272 272 270 270 268 270 269 270 268 267 266 266 266 267 270 269 268 265 263 263 263 262 262 262 263 263 263 262 262 262 262 262 262 262
274 275 275 274 273 273 273 273 273 273 274 273 274 274 273 273 271 268 268 267 268 268 269 269 268 268 269 269 269 269 268 265 265 265 265 264 264 263 263 262 262 262 262 261 261 261 261 262 262 261 262 261 260 259
274 274 274 275 274 273 272 274 275 275 275 276 275 273 272 274 273 271 267 267 269 271 270 270 271 270 268 267 266 266 266 265 264 264 263 263 262 262 262 262 262 262 261 261 260 260 260 260 260 260 260 260 259 258
276 277 276 276 275 276 274 275 276 276 275 275 273 270 270 273 273 270 267 268 268 269 269 268 267 267 266 266 265 265 264 264 264 263 263 262 262 262 262 261 261 261 261 260 260 260 259 259 260 259 259 258 258 258

GFSWCAN_925_thetae_057.txt.gz
Theta_e
293 293 294 294 295 295 295 295 296 295 294 294 294 294 294 294 294 295 296 296 297 299 299 299 300 300 302 304 306 305 305 305 306 310 309 310 311 310 310 312 312 311 312 313 313 314 314 312 312 313 318 315 315 314
293 294 294 295 296 296 297 297 297 297 295 294 294 293 293 293 293 293 295 295 296 298 298 298 298 298 300 301 302 304 306 307 307 309 309 310 311 311 310 311 313 312 311 312 311 313 313 313 316 315 314 314 314 314
295 295 296 297 297 298 297 297 297 296 296 295 294 293 293 293 294 295 296 296 296 297 299 299 300 298 300 299 300 304 305 304 308 308 310 311 310 310 311 310 311 312 312 312 314 312 313 312 314 314 312 313 312 311
296 297 297 298 298 298 299 299 297 296 296 295 294 294 294 294 294 295 296 296 297 298 298 299 299 299 298 301 301 301 304 304 306 308 310 310 311 309 310 310 311 310 310 311 312 312 311 311 314 312 311 310 310 309
296 297 299 300 299 300 300 299 297 296 295 295 295 295 295 295 295 296 297 297 297 298 300 300 300 302 301 300 302 303 303 304 305 308 309 310 309 309 310 310 311 309 310 312 312 313 314 312 311 309 308 308 307 306
298 299 299 299 300 300 300 299 298 297 296 295 296 296 296 297 297 298 297 297 297 297 298 302 303 304 303 302 303 305 304 304 305 307 307 307 308 309 311 310 309 310 310 308 311 308 309 309 308 305 305 303 301 301
300 299 300 299 300 299 300 299 299 298 297 297 297 298 298 298 298 297 300 299 298 298 300 304 305 303 302 303 304 304 304 305 303 304 305 308 309 308 309 310 308 305 304 305 303 303 307 304 305 300 300 299 298 297
299 299 298 299 298 300 300 300 300 299 298 298 298 298 298 298 298 298 300 299 297 298 301 306 305 305 303 305 306 305 305 305 305 306 306 307 307 308 311 303 302 300 300 302 300 299 300 300 298 295 295 294 295 292
298 299 299 299 300 299 300 300 300 300 299 299 299 299 297 296 297 300 299 299 299 300 303 304 305 306 304 305 304 305 305 306 305 306 305 307 308 309 297 298 296 294 295 296 296 299 298 296 295 294 293 292 292 288
299 299 299 300 299 300 300 300 300 300 300 300 296 295 298 299 299 298 297 297 298 301 304 304 304 307 305 305 305 306 305 305 306 305 305 307 298 294 293 292 291 291 292 292 294 297 293 294 292 290 289 287 287 285
298 299 299 300 300 300 300 300 300 300 298 298 296 299 299 298 299 298 301 304 303 304 304 304 305 305 304 306 306 305 305 306 305 307 308 309 300 292 291 290 289 289 289 289 289 288 288 289 290 288 286 285 283 282
298 298 298 299 300 300 300 300 300 300 299 299 298 297 298 299 302 305 304 303 303 303 302 304 304 305 304 305 306 306 306 306 307 306 308 307 293 290 289 287 287 286 286 286 286 286 285 285 285 284 283 281 280 279
296 297 297 299 300 300 300 300 300 299 299 299 297 297 300 297 304 305 303 303 304 302 302 302 304 303 303 302 305 307 306 307 304 307 305 295 290 288 288 287 286 285 284 283 283 282 281 281 280 280 279 279 278 278
292 297 296 295 298 298 298 297 296 296 297 298 298 295 299 298 297 297 299 299 296 297 300 301 302 302 301 303 303 305 302 303 305 305 299 291 288 287 286 285 284 283 282 282 281 280 280 279 279 278 278 277 277 276
292 294 294 292 297 298 297 294 293 293 293 293 294 295 293 291 291 292 292 294 293 294 298 301 301 302 301 300 300 300 301 303 300 298 292 288 286 285 284 283 282 282 281 281 280 279 278 278 277 277 276 276 275 275
296 295 290 289 290 290 290 291 291 290 290 289 289 292 292 294 294 293 294 295 293 294 297 300 300 300 298 299 300 298 304 300 293 290 287 285 284 284 283 283 282 281 280 280 279 278 278 277 277 276 275 275 275 275
298 297 292 288 289 289 290 290 289 288 288 289 289 289 290 290 290 291 291 291 292 296 300 299 299 296 295 297 294 291 293 290 289 288 287 285 284 283 282 282 281 281 280 280 280 279 279 279 279 278 278 276 275 274
298 295 294 292 292 290 288 288 288 288 287 289 288 289 288 288 290 290 290 291 294 294 294 292 293 294 294 295 292 288 288 287 286 285 284 283 283 282 282 281 280 280 280 280 279 279 279 279 279 278 276 275 275 275
296 295 292 292 292 290 290 289 289 288 288 287 287 287 288 288 288 288 289 289 290 290 291 291 290 290 289 288 287 286 285 284 284 282 281 280 280 279 279 279 279 279 279 279 279 278 277 277 277 277 277 277 276 276
290 291 290 290 292 291 289 288 288 288 288 287 287 287 286 286 287 288 287 287 287 287 286 286 286 286 286 286 285 284 284 283 283 282 281 281 280 280 281 280 279 279 278 278 277 277 277 276 274 274 274 275 275 274
294 292 291 292 291 290 290 289 288 288 287 287 287 287 287 286 286 286 286 285 284 284 283 283 283 283 283 283 283 283 283 284 285 284 283 281 280 279 279 278 278 278 278 278 277 275 275 275 274 273 273 273 272 271
293 293 294 291 292 291 290 289 289 289 288 287 287 287 287 287 285 285 284 283 282 282 283 284 283 283 282 282 281 280 280 279 279 279 279 279 281 280 279 278 277 277 276 276 276 275 274 273 272 272 272 271 271 271
293 293 294 293 293 292 291 291 291 291 291 289 288 287 287 286 284 285 284 282 282 281 281 280 280 279 279 278 278 279 279 280 280 279 278 277 277 276 276 276 275 275 275 273 273 273 272 270 270 271 270 271 271 270
288 288 292 294 293 291 291 291 291 291 290 290 288 287 286 287 286 285 283 282 281 281 281 280 280 280 280 280 280 278 278 278 278 277 277 277 276 275 274 274 273 272 272 272 272 271 271 270 269 270 270 270 270 270
291 285 290 291 291 292 291 291 291 291 291 289 288 288 287 287 287 286 284 282 282 281 281 281 281 282 282 280 278 277 277 278 277 276 275 275 275 274 274 273 272 271 271 273 272 271 270 269 269 269 269 269 269 269
287 284 288 290 291 292 292 292 291 291 289 288 286 285 287 288 287 286 284 282 282 281 282 281 282 281 281 279 279 277 275 275 276 275 273 273 273 275 274 274 274 272 269 270 271 271 270 269 269 268 269 268 266 266
287 286 283 282 286 288 290 289 289 289 288 287 287 286 287 286 284 281 280 281 280 278 278 279 280 280 278 276 274 273 272 272 272 272 271 270 270 270 271 272 271 269 268 268 268 269 269 269 268 268 268 268 268 267
282 282 282 281 282 283 283 284 284 285 285 282 284 282 283 283 282 280 279 277 277 276 275 275 275 275 275 273 273 272 271 270 270 270 270 270 269 268 268 267 266 265 266 265 266 266 267 267 267 267 267 267 267 266
281 280 278 276 279 279 278 280 281 278 278 282 282 281 278 276 276 276 275 275 276 275 275 274 273 272 272 271 272 272 272 272 273 272 272 273 272 270 267 267 267 266 266 266 266 265 266 265 265 265 266 266 266 265
279 280 278 276 277 277 276 277 277 277 277 277 276 276 275 274 274 275 275 276 276 276 275 274 274 274 273 273 272 271 269 268 268 270 273 272 270 267 267 266 266 265 265 266 266 266 265 265 265 265 265 265 266 265
280 280 279 278 277 277 277 276 276 277 279 279 279 277 276 275 273 272 272 273 273 273 273 273 272 273 272 272 273 272 271 266 265 265 266 266 266 266 265 264 264 264 264 264 264 265 264 264 265 265 265 264 263 262
279 279 278 277 277 276 277 279 279 280 279 279 278 277 278 278 277 274 270 272 274 274 272 273 273 272 269 268 267 266 266 266 265 264 264 265 265 263 263 263 263 263 263 263 264 263 263 263 263 264 264 263 263 262
281 280 280 280 278 279 278 281 281 280 280 279 277 277 276 278 276 273 269 268 271 273 272 271 269 267 266 267 266 266 265 264 264 264 263 263 263 262 262 263 263 262 262 263 263 263 263 263 263 263 262 262 261 261

GFSWCAN_925_thetae_060.txt.gz
Theta_e
293 293 293 293 293 294 294 295 295 296 295 295 295 294 294 293 294 295 295 296 297 299 299 299 299 299 300 303 307 306 306 305 306 307 308 308 310 311 312 312 313 313 314 315 313 313 314 311 312 312 319 316 315 315
293 293 294 294 295 295 295 295 296 296 298 296 295 294 294 293 293 294 295 296 297 298 298 298 298 298 298 299 302 305 305 304 306 307 308 310 312 313 311 312 313 315 311 312 311 311 314 314 317 315 315 315 313 313
293 293 294 294 295 296 297 297 297 297 297 297 297 294 294 293 294 294 294 295 297 298 298 299 298 298 299 299 300 303 303 304 305 304 309 311 312 311 311 310 313 313 313 312 313 312 311 316 315 313 312 312 310 310
293 294 295 296 296 297 299 299 298 298 297 297 296 294 295 294 294 295 295 296 297 298 298 298 298 299 299 299 300 301 302 301 304 304 307 310 311 311 313 311 312 313 311 313 314 314 313 313 313 310 310 308 307 307
294 295 295 297 299 300 300 299 300 300 297 296 297 295 295 294 294 295 295 296 297 298 300 301 299 300 299 301 300 299 303 303 304 306 307 309 309 310 311 310 310 311 312 314 316 312 314 310 308 307 306 305 304 303
295 296 297 299 299 299 299 300 300 298 296 296 296 295 294 294 294 295 296 296 296 297 299 300 300 302 302 301 303 303 303 304 304 304 306 308 307 309 310 311 310 309 308 307 308 306 308 307 304 303 303 302 301 300
297 298 299 300 299 299 299 300 299 297 296 296 295 295 294 294 295 296 299 300 296 297 298 299 299 302 303 303 304 305 304 304 303 304 306 307 309 309 311 310 307 304 304 304 302 304 308 303 301 298 298 299 298 294
298 299 298 299 299 299 300 299 299 297 296 296 295 295 295 296 296 297 297 300 298 298 299 301 303 305 303 305 306 304 304 304 304 306 305 308 308 309 309 304 301 298 301 300 299 301 300 299 297 296 295 296 293 291
299 298 299 299 299 299 300 300 299 298 297 296 296 297 298 295 297 298 298 298 298 299 300 303 305 306 305 305 305 306 305 306 305 308 307 306 310 307 297 297 295 294 295 296 297 299 298 296 295 293 292 292 291 288
298 298 299 299 300 299 300 300 300 299 298 298 296 294 297 297 299 298 298 297 299 300 302 304 304 306 305 307 307 306 306 306 305 305 307 307 299 295 294 292 292 292 292 291 294 294 293 293 292 289 288 287 286 285
298 299 300 299 299 300 300 300 300 299 298 297 298 299 299 298 298 298 300 302 302 303 303 304 305 306 305 307 306 306 306 307 306 307 307 308 299 294 292 290 289 289 288 289 289 288 288 288 289 287 285 283 282 282
298 300 300 300 300 300 300 300 298 298 299 299 299 298 298 299 300 303 304 303 303 304 305 306 306 305 305 305 306 307 306 307 306 305 307 303 293 291 289 288 287 286 286 286 286 285 285 285 284 283 282 281 280 279
299 300 300 300 300 299 299 298 299 299 298 299 299 299 301 300 305 305 303 304 305 303 303 305 305 304 303 304 305 305 306 306 306 306 302 295 291 289 289 287 286 285 284 283 282 281 281 280 280 280 279 279 278 277
298 298 299 300 298 299 299 299 299 299 298 299 299 297 301 300 298 298 299 299 298 300 302 304 302 303 301 302 304 306 303 304 307 307 298 292 288 287 286 285 284 283 282 281 281 280 279 279 278 278 277 277 276 276
297 296 295 294 297 296 295 293 294 294 294 295 296 297 294 293 293 294 295 296 295 297 300 301 302 303 303 301 301 302 302 306 299 296 292 288 286 285 284 283 282 282 281 281 280 279 278 278 277 277 277 276 276 275
296 297 295 293 291 292 292 293 292 292 292 291 292 294 295 296 295 295 296 295 294 297 298 301 303 301 300 301 302 300 303 300 294 290 287 286 285 284 283 283 282 281 280 280 280 279 278 278 277 276 276 275 275 275
298 294 289 289 290 291 292 292 290 290 290 291 290 291 293 293 293 293 293 293 294 297 301 301 301 298 297 300 295 292 294 291 289 288 286 285 284 283 283 282 282 282 281 281 280 280 279 279 279 278 278 277 275 274
297 289 290 291 292 291 290 291 290 290 289 291 291 290 290 291 292 292 292 293 296 296 296 295 296 295 294 297 292 290 288 287 287 286 285 284 283 283 282 282 282 281 281 281 280 280 280 280 279 278 277 276 276 276
296 294 294 292 293 291 291 291 291 289 289 289 289 289 290 290 289 290 291 291 291 292 293 292 291 291 290 290 288 287 286 285 284 283 282 281 281 281 281 281 281 281 280 280 280 279 278 278 278 278 278 278 277 276
290 291 290 291 292 291 290 290 290 290 290 288 289 288 288 289 289 288 288 288 288 287 286 287 288 288 287 287 286 286 285 284 283 282 282 282 282 282 282 281 280 280 279 279 278 278 278 277 275 275 275 275 276 275
293 292 292 292 291 291 291 290 289 289 289 289 289 288 288 288 287 287 286 286 285 285 285 285 285 285 284 284 284 284 284 284 285 284 283 282 281 280 280 280 280 280 280 279 278 277 277 276 275 275 274 274 273 272
294 294 294 292 292 291 291 289 289 289 289 289 289 289 289 288 287 285 284 284 284 284 285 284 284 283 283 283 282 282 282 281 281 281 280 281 282 281 280 279 279 278 278 277 277 276 275 274 273 274 273 273 272 270
294 295 294 294 294 292 291 290 292 292 290 289 290 289 289 287 286 286 284 283 283 282 282 281 281 281 280 280 281 281 281 281 281 280 280 279 279 278 278 277 277 277 276 275 275 275 273 271 271 272 272 272 272 271
290 290 294 294 293 292 293 292 292 292 292 291 289 288 289 288 286 285 284 283 283 282 282 282 281 282 281 281 281 280 280 280 279 279 279 278 277 276 276 275 274 274 274 273 273 273 272 271 270 272 271 271 271 270
292 286 291 293 294 293 293 293 292 292 292 290 290 290 289 289 288 286 285 283 283 283 283 283 284 283 282 281 279 278 279 279 279 277 277 277 276 276 275 274 273 272 273 274 273 273 271 271 271 271 270 270 269 269
288 286 290 292 293 294 294 294 293 292 290 289 289 289 290 290 289 287 285 284 283 283 284 284 283 283 282 281 280 278 277 277 277 276 274 274 275 276 276 276 275 272 271 271 272 272 272 270 270 269 269 269 268 267
289 287 285 286 289 291 292 292 292 291 290 290 290 290 289 288 286 283 284 282 282 281 280 281 282 281 279 277 275 274 273 273 274 273 272 272 271 271 272 272 272 270 270 269 270 269 270 270 270 269 269 269 269 269
284 284 285 285 285 286 286 287 287 288 286 285 287 285 286 285 283 282 281 279 279 278 277 277 277 277 276 275 274 273 273 272 272 272 271 271 270 270 269 268 267 267 267 267 267 267 268 268 268 268 268 268 268 267
284 282 280 279 281 280 281 283 282 280 280 284 285 282 279 279 279 278 278 277 277 277 276 275 274 274 274 274 274 273 273 273 274 273 274 275 273 270 269 268 268 268 267 267 267 266 266 266 266 265 265 266 266 266
282 283 280 279 279 278 278 281 280 279 279 278 277 278 277 277 277 277 278 278 278 277 277 276 276 276 275 274 273 271 270 269 269 271 273 273 271 268 268 268 267 267 266 267 267 267 267 266 266 267 266 266 267 267
283 283 281 280 279 278 279 280 280 280 280 279 279 277 276 275 274 274 275 275 275 275 275 275 275 274 274 274 274 274 271 267 266 267 267 268 267 267 265 265 265 265 266 266 265 266 265 265 266 266 266 266 265 264
283 281 280 278 278 279 279 282 281 280 280 280 279 279 279 279 277 275 272 274 276 275 274 275 274 271 270 269 268 268 268 267 266 266 266 266 266 265 265 265 265 265 264 264 265 265 265 264 264 264 265 264 264 263
282 281 281 280 279 280 280 283 282 282 281 281 279 279 278 279 277 274 271 271 274 274 273 271 270 268 268 268 267 267 266 265 264 264 264 263 263 263 263 264 264 264 264 264 264 265 265 264 264 263 263 263 263 263

GFSWCAN_925_thetae_063.txt.gz
Theta_e
292 293 293 293 293 293 293 293 294 294 294 294 295 295 295 294 294 295 295 295 295 296 297 297 298 298 299 301 303 302 302 305 303 302 302 303 304 307 308 310 313 311 311 311 309 310 312 311 313 315 316 314 313 312
293 292 292 292 293 293 294 294 295 295 296 295 296 295 294 295 294 294 295 295 295 295 296 296 297 298 298 298 300 301 300 303 305 305 303 305 304 306 310 312 312 313 313 311 310 309 312 315 316 314 312 312 311 310
292 292 292 293 293 293 295 296 297 297 297 297 297 297 295 295 295 294 295 295 295 295 296 295 296 296 296 298 299 301 302 304 304 302 303 306 307 308 309 309 312 312 311 313 312 312 313 313 311 310 309 308 307 306
292 293 293 293 293 294 296 297 298 298 299 299 298 297 296 295 295 294 295 294 295 297 291 294 296 297 298 298 299 299 300 301 300 301 303 305 308 309 308 310 309 311 308 311 312 313 311 308 307 306 305 305 304 302
292 293 293 294 295 296 297 299 300 299 299 299 298 297 297 295 295 294 295 295 295 296 297 298 297 298 300 299 298 298 299 301 302 303 304 307 306 309 308 308 310 310 305 311 312 308 310 308 306 303 303 302 300 299
293 293 294 295 296 298 299 299 299 300 300 298 297 297 295 295 294 295 294 294 295 296 296 294 298 300 301 300 301 299 298 299 302 303 304 306 307 307 304 307 307 304 303 301 301 306 303 300 299 300 300 296 294 292
293 294 295 296 299 299 300 299 300 300 298 296 297 295 295 294 294 294 294 297 294 296 298 298 299 301 300 301 301 301 302 302 303 304 303 305 305 308 302 305 299 299 301 298 300 302 300 298 297 297 296 293 290 288
295 296 296 298 298 298 299 299 300 297 296 296 296 295 294 294 294 294 295 297 297 296 298 299 299 300 303 304 304 303 303 302 302 304 303 306 306 306 305 298 296 295 297 295 297 298 297 295 292 292 292 291 288 287
298 298 299 298 298 298 299 300 299 296 296 296 295 294 294 295 296 295 295 296 297 297 297 298 299 304 303 304 303 303 304 303 303 303 304 304 300 300 296 294 293 293 292 292 295 293 294 292 290 288 288 287 286 285
298 297 298 298 298 299 299 300 297 296 296 295 295 293 294 294 297 296 296 297 297 298 299 299 300 301 303 303 302 303 302 304 304 302 302 304 297 294 292 290 289 289 290 290 291 290 290 289 286 285 285 284 284 282
298 299 299 299 299 300 300 299 296 296 297 296 295 295 298 298 298 297 298 299 298 299 298 299 299 301 303 303 303 302 302 301 304 304 303 303 297 293 289 288 287 287 287 288 287 287 286 285 285 283 282 281 279 279
299 300 300 299 299 300 300 299 297 297 298 298 298 298 297 297 297 301 299 299 299 301 300 299 300 303 303 304 303 303 304 303 306 301 304 295 292 289 287 286 286 285 284 284 283 283 283 282 281 281 280 279 278 277
300 300 300 300 300 300 299 298 297 299 298 299 298 299 300 299 302 302 299 299 299 300 300 301 303 301 301 300 300 303 305 303 302 305 296 292 289 288 286 285 284 283 282 281 280 279 278 278 278 277 276 275 275 275
299 300 300 300 300 297 296 299 299 299 299 298 297 294 298 299 297 296 298 298 297 299 300 299 300 301 299 301 301 302 300 298 304 301 291 288 286 285 283 283 281 280 279 278 278 277 276 276 276 276 275 275 275 274
297 296 295 297 297 298 298 297 295 294 293 294 294 295 293 293 292 294 295 295 295 296 298 297 295 296 297 299 300 299 298 301 295 289 287 285 283 281 280 280 279 279 278 277 277 276 276 276 275 275 275 275 274 274
295 294 293 295 295 293 293 293 291 291 290 289 291 294 294 292 293 293 295 294 293 295 297 298 299 299 299 300 298 294 297 291 288 284 284 283 282 281 281 280 280 279 279 278 277 277 277 276 275 275 275 274 274 274
297 292 290 290 291 292 292 291 290 290 290 289 288 288 289 286 287 291 292 293 293 295 300 297 295 297 295 294 292 290 287 286 285 284 283 282 281 280 280 281 280 280 280 279 278 277 277 276 276 276 275 274 274 273
290 290 292 296 294 291 291 291 289 289 289 290 288 285 284 288 289 289 290 290 293 295 294 293 294 290 287 291 286 286 284 284 283 283 282 282 282 282 282 281 281 281 280 280 280 280 279 278 277 276 276 275 275 274
291 292 292 292 292 291 291 291 289 289 289 287 288 287 287 287 287 287 288 288 288 288 289 288 286 286 285 285 284 283 283 282 281 281 280 281 281 281 281 281 280 280 280 280 279 278 277 276 275 276 276 277 275 275
294 291 291 292 291 291 290 289 290 289 289 287 288 286 286 288 287 284 284 286 286 286 285 284 284 285 284 285 283 283 282 281 281 281 280 280 280 281 281 280 280 279 278 278 277 277 276 275 275 274 274 274 273 272
292 292 292 291 291 291 291 289 289 288 289 289 288 286 286 285 284 282 282 284 284 284 283 284 282 283 284 284 284 284 283 283 282 282 281 280 280 280 280 280 280 280 279 277 277 275 275 274 274 274 273 272 271 270
293 293 292 291 291 291 289 289 288 289 289 289 289 289 287 284 282 282 283 282 282 282 283 282 283 282 282 282 282 282 281 281 281 281 281 281 280 278 278 278 277 276 276 276 275 273 272 273 273 273 272 272 271 271
294 295 294 293 292 291 290 289 291 290 288 289 289 288 286 284 284 284 281 282 281 282 281 281 281 281 281 281 281 281 281 280 280 279 279 278 278 277 276 275 275 275 274 274 273 272 271 271 271 272 272 272 271 271
291 290 292 291 290 290 291 292 291 291 289 289 287 288 287 285 285 284 283 283 280 281 280 280 281 281 281 280 279 280 280 279 278 278 278 277 276 275 275 274 273 273 273 273 273 272 272 271 271 271 270 271 271 270
288 285 288 289 291 289 290 291 292 291 288 288 288 286 285 288 284 282 281 281 282 282 280 282 282 280 278 274 278 278 279 278 277 275 275 276 275 275 274 273 272 272 272 273 272 272 271 270 271 270 269 269 269 269
285 284 287 289 291 291 291 288 288 288 285 286 285 286 287 286 282 282 283 281 280 278 280 280 279 280 279 278 275 275 274 276 275 273 273 273 273 274 274 272 271 270 270 270 270 270 271 270 270 269 269 269 269 268
283 284 286 287 288 291 288 288 288 285 285 285 288 285 282 280 279 283 282 280 280 279 280 281 280 277 275 274 273 273 273 274 273 272 271 271 271 271 271 270 269 268 269 269 269 268 268 268 268 268 269 269 268 268
283 284 281 283 281 282 281 280 281 282 281 283 282 278 279 278 280 281 280 278 277 276 276 276 276 275 274 274 273 273 272 272 272 271 270 270 270 269 269 268 268 268 268 267 267 267 267 267 267 267 267 267 267 267
281 280 278 275 277 277 278 279 278 278 279 281 276 275 275 278 278 277 277 276 276 275 274 274 274 274 274 273 272 272 272 273 273 266 266 268 269 268 268 268 267 267 267 267 267 267 266 266 266 266 266 266 266 266
282 280 277 275 274 276 278 279 276 276 275 275 277 277 276 276 277 277 277 277 277 276 275 274 274 274 273 271 270 269 268 269 270 270 266 265 268 268 268 267 266 266 266 266 266 266 266 266 266 266 266 266 266 265
282 279 278 277 277 279 278 279 278 277 276 275 273 274 273 273 274 274 274 275 275 275 275 274 273 273 273 272 271 268 267 266 267 268 267 267 267 266 265 265 265 265 265 265 265 265 265 265 264 265 265 265 264 264
280 277 275 275 278 279 280 276 277 278 277 276 274 272 273 274 272 273 273 274 276 275 275 272 271 269 269 268 269 269 268 266 266 266 266 266 265 265 265 264 264 264 264 264 264 264 265 264 264 264 264 263 263 263
278 277 277 275 274 276 278 279 279 280 279 276 276 276 274 273 271 272 272 272 273 272 271 270 269 269 269 268 267 267 266 265 265 264 264 264 263 263 264 264 264 264 263 263 263 264 264 264 264 263 263 262 262 262

GFSWCAN_925_thetae_066.txt.gz
Theta_e
294 293 293 292 293 293 293 294 294 294 294 294 293 294 294 294 295 295 294 294 294 296 295 296 297 297 298 300 300 300 301 302 302 298 301 302 301 305 306 306 308 309 309 307 308 309 310 311 314 314 315 313 312 311
292 292 293 293 293 293 293 293 294 294 294 295 295 295 294 295 296 295 294 294 294 295 292 295 296 296 296 297 298 300 300 300 303 302 303 303 301 299 306 310 311 313 311 310 308 307 310 308 310 310 312 311 310 309
293 293 292 292 292 293 293 293 293 294 295 296 297 297 296 296 295 295 294 294 294 295 293 293 294 294 294 295 296 297 300 300 300 300 302 304 305 305 307 309 311 312 311 312 312 311 309 307 306 305 304 303 302 303
292 292 292 292 293 293 293 293 294 295 296 297 298 298 297 297 297 294 294 294 295 295 292 292 295 295 296 296 296 297 299 300 300 300 303 304 303 305 307 309 309 310 308 310 313 309 308 306 305 304 301 300 298 296
292 292 292 292 292 293 294 295 296 297 299 299 299 299 298 297 295 295 294 294 294 294 296 295 295 296 296 297 297 298 299 299 299 304 301 304 305 305 308 308 308 305 304 306 309 307 304 306 303 302 299 296 295 294
292 292 292 292 293 294 295 297 298 299 300 299 299 298 297 296 295 294 291 294 295 295 295 292 293 297 299 300 298 296 296 297 299 302 303 304 305 306 307 309 302 303 300 302 302 299 297 298 299 297 294 292 290 289
292 292 293 293 294 295 297 299 299 299 300 298 297 298 296 295 294 291 290 293 293 295 297 296 294 297 297 298 297 298 298 300 301 301 303 303 303 305 305 305 299 298 297 299 301 301 297 296 296 293 290 288 286 285
292 293 294 294 295 296 298 299 299 299 298 297 297 296 295 294 293 294 295 297 294 295 294 295 296 297 300 299 300 298 300 301 301 302 302 304 304 305 299 296 294 295 295 295 296 294 292 291 290 290 289 287 286 284
293 294 294 296 296 298 298 298 299 296 296 297 295 295 294 294 292 294 295 295 295 295 295 297 298 297 294 300 300 302 302 301 302 303 302 303 297 295 295 292 291 291 291 292 293 292 290 289 288 287 287 286 285 284
294 296 298 298 298 298 299 299 296 296 296 295 294 293 294 293 294 295 296 297 296 297 298 300 297 299 299 301 301 301 300 304 305 303 301 299 295 291 290 289 288 289 289 289 291 291 288 287 286 285 284 283 282 281
298 298 298 298 298 299 299 296 297 295 294 293 294 296 295 295 296 295 296 296 297 298 297 297 297 299 301 303 304 299 300 302 304 301 304 300 296 290 287 286 286 285 286 285 285 284 286 285 283 282 281 280 280 279
297 297 298 299 299 299 297 296 295 294 294 295 296 297 297 297 298 299 298 297 298 298 296 297 297 296 300 303 301 302 302 301 305 303 303 294 289 287 286 285 284 283 282 282 282 282 282 281 280 279 279 278 277 276
300 299 299 299 299 298 296 296 295 296 297 298 298 297 299 298 299 297 298 299 298 299 300 300 302 301 299 299 298 302 305 301 301 298 292 289 287 285 284 283 282 281 280 279 278 278 278 277 277 276 275 274 274 274
299 300 300 299 298 297 296 296 296 298 299 297 297 293 295 297 293 293 294 298 297 298 299 298 297 296 297 300 299 300 297 299 303 293 288 285 285 284 282 281 279 277 276 276 275 275 275 274 274 274 274 274 274 273
300 300 300 299 298 297 297 298 298 294 292 292 292 290 288 287 287 291 294 295 294 296 297 298 296 293 295 297 297 297 296 294 291 285 281 281 280 279 278 277 276 276 275 275 274 274 273 274 273 273 274 274 274 274
295 294 296 296 297 297 296 292 291 291 289 289 288 290 290 289 290 292 293 293 293 294 296 293 292 297 298 297 295 293 294 287 281 278 280 281 278 276 277 278 278 277 276 276 276 275 274 274 274 274 274 274 273 273
295 292 294 295 295 292 291 290 290 290 289 287 284 279 282 279 286 289 291 292 292 296 295 292 290 296 293 290 288 285 281 279 281 280 278 275 276 278 278 279 278 278 277 277 277 276 275 275 274 274 273 273 273 272
291 291 291 292 291 291 291 290 288 288 287 286 285 284 280 279 280 284 288 289 292 290 288 292 290 285 282 286 282 280 280 280 277 278 279 277 279 280 280 280 280 280 279 279 279 278 277 277 277 276 275 274 273 273
291 293 292 292 292 291 290 289 288 286 285 281 282 282 278 280 282 281 282 284 285 285 287 286 283 284 283 280 279 278 275 277 280 280 280 280 281 281 281 280 280 280 280 279 277 276 275 275 275 276 276 275 274 273
291 291 291 291 291 290 290 288 288 287 284 284 283 283 283 283 280 280 283 285 286 285 284 282 279 278 277 277 275 277 278 280 280 280 280 280 280 280 280 279 279 278 277 277 276 275 274 274 274 274 274 273 273 272
292 293 293 290 290 290 289 288 287 287 287 284 284 284 282 283 281 281 281 283 283 283 280 279 279 281 281 281 281 281 281 281 280 280 280 279 280 280 280 279 278 278 276 275 273 273 274 273 273 273 272 271 271 271
292 292 291 291 290 289 288 287 286 286 287 288 288 288 283 280 279 280 282 281 280 280 279 279 280 282 282 281 281 281 281 281 280 280 280 279 277 277 276 276 275 274 275 274 273 272 272 272 272 272 272 271 270 270
294 294 293 291 288 284 286 288 287 288 286 287 288 286 282 280 281 283 280 280 278 280 280 281 281 281 280 280 280 280 280 279 278 277 276 275 275 275 274 274 274 273 273 273 273 272 271 271 271 271 271 271 271 270
291 289 289 288 287 286 287 287 289 289 288 288 286 285 283 281 283 279 279 279 278 280 280 280 280 279 278 278 276 278 277 278 276 276 276 275 273 273 273 273 273 273 273 272 272 272 271 270 271 271 270 270 269 269
287 284 286 288 288 286 286 288 288 286 284 282 282 282 283 283 278 278 276 278 279 278 277 280 279 277 274 270 274 275 277 277 274 273 274 275 274 273 271 271 271 271 272 272 271 271 270 270 270 269 269 269 269 268
283 281 285 286 288 288 287 283 281 282 279 280 279 282 284 277 276 279 280 274 277 276 279 279 277 276 275 275 273 274 274 274 275 272 271 273 274 273 271 269 269 269 269 270 270 270 269 269 269 269 269 269 268 268
280 280 284 285 285 287 284 281 283 280 279 282 282 278 275 274 274 280 279 276 274 277 280 279 277 275 273 272 273 274 275 274 274 271 270 270 271 272 273 271 269 268 268 268 268 268 268 268 267 267 267 267 267 267
281 280 278 276 277 276 273 273 273 276 276 280 278 274 273 273 277 277 275 275 275 277 277 276 276 275 273 272 271 272 272 271 271 270 269 269 269 268 268 268 267 267 267 267 267 266 266 266 266 266 266 266 266 266
276 275 275 271 272 272 275 273 274 276 277 276 270 270 273 275 274 275 274 274 275 275 273 272 272 273 272 272 272 272 271 271 271 264 262 261 267 267 267 267 267 266 266 266 267 266 266 266 266 266 266 266 266 266
278 274 274 269 272 274 272 270 270 269 272 273 275 276 274 274 275 275 275 275 275 273 273 273 273 273 271 271 268 269 269 270 271 271 262 261 267 267 267 266 266 266 266 265 265 265 265 265 265 265 265 265 265 264
277 272 273 273 275 273 274 274 274 273 268 269 267 270 269 272 274 274 274 275 275 274 274 272 272 272 272 270 269 267 266 267 268 268 268 267 267 266 265 265 264 265 264 264 264 264 264 264 264 264 264 263 263 263
271 269 271 274 275 274 270 268 269 269 267 268 269 264 268 267 268 270 272 274 274 273 273 273 272 270 271 271 270 270 269 266 266 266 266 266 265 265 264 264 264 264 264 264 264 264 264 264 264 264 263 263 262 262
271 269 270 270 271 274 274 274 276 278 274 273 273 271 268 266 267 269 271 273 274 274 272 271 270 268 268 268 267 266 266 265 265 264 264 264 264 264 264 264 263 263 263 263 263 263 263 263 263 262 262 261 261 261

GFSWCAN_925_thetae_069.txt.gz
Theta_e
291 292 293 293 294 293 293 294 294 294 294 294 294 294 294 294 295 295 294 294 293 294 293 295 295 294 295 296 296 296 297 298 300 300 303 304 302 304 305 304 306 307 307 306 307 308 308 307 312 313 314 312 310 308
291 292 293 293 292 292 293 293 293 293 293 293 294 294 295 294 295 295 294 293 294 293 293 294 294 295 295 296 296 298 299 299 300 304 303 302 302 298 304 305 309 304 309 309 307 307 307 305 306 307 310 311 309 307
291 293 293 292 293 293 293 292 292 293 293 293 294 295 296 296 295 295 295 293 293 295 294 292 293 294 294 295 296 298 298 298 298 299 302 303 303 305 302 304 309 311 310 310 311 309 307 304 303 301 300 301 303 303
292 292 293 293 292 292 292 293 293 293 293 294 294 295 295 296 297 296 293 294 293 294 292 291 294 293 295 295 295 296 297 299 299 300 302 302 302 304 305 307 307 309 308 306 311 309 307 306 303 300 298 296 295 294
292 292 292 292 292 292 293 292 293 294 295 296 297 297 298 298 298 297 293 293 293 293 295 294 294 294 295 295 294 295 296 298 299 301 301 301 302 305 303 306 306 303 302 304 308 305 305 303 300 299 296 294 293 291
292 292 293 292 292 292 292 293 293 295 296 297 297 299 299 300 298 292 293 292 293 294 293 293 292 294 298 295 296 295 296 296 298 300 302 303 303 304 306 304 301 300 300 301 301 298 297 296 293 292 291 290 289 287
292 292 292 292 292 292 293 294 294 296 298 299 300 299 298 295 294 292 290 292 294 294 295 296 293 294 297 297 295 295 295 296 296 299 299 301 302 304 303 302 298 298 299 299 297 298 296 295 292 289 287 286 285 284
291 291 292 292 292 293 294 294 296 299 299 298 298 297 295 294 295 295 295 294 294 294 293 292 293 293 298 297 297 295 297 298 299 301 301 302 302 305 298 295 294 294 295 294 292 291 291 290 289 288 287 286 284 283
291 291 291 292 293 294 295 296 298 299 297 297 296 294 293 293 291 294 295 294 294 293 291 293 292 289 295 300 298 298 298 299 300 301 302 302 299 295 294 292 291 290 290 291 292 290 289 288 287 286 286 285 284 282
291 292 292 293 294 295 296 297 299 297 297 294 293 293 290 293 294 295 295 295 294 294 296 298 297 298 297 298 300 301 300 301 303 302 302 297 290 289 289 288 288 288 287 289 291 290 288 287 286 284 283 282 282 282
292 292 293 295 297 297 298 298 297 296 294 293 292 293 292 295 295 294 294 295 296 298 296 297 297 299 299 301 302 299 300 302 303 301 304 298 293 288 287 286 285 284 284 284 283 283 283 283 283 282 281 280 279 278
293 296 297 298 298 298 297 296 295 294 293 294 295 295 295 295 295 295 296 296 298 297 295 297 297 297 298 302 301 301 301 299 305 301 300 292 288 286 285 284 283 282 281 282 282 282 281 280 279 279 278 277 275 274
296 297 298 298 298 297 296 295 294 294 296 297 296 296 296 295 298 298 298 299 298 295 300 301 301 296 298 301 300 301 304 297 302 295 291 289 287 285 284 283 281 280 279 279 278 277 276 276 275 275 274 274 273 273
298 297 298 298 297 296 295 294 294 297 298 296 294 297 295 293 290 287 287 292 296 298 298 298 297 296 297 299 298 300 296 297 296 290 289 284 285 284 282 281 279 276 276 276 275 274 274 273 273 273 274 274 274 272
299 299 298 298 296 295 295 294 297 295 291 291 290 286 286 284 286 287 292 295 294 295 297 297 294 292 297 297 294 297 295 290 288 286 279 281 280 278 276 275 274 274 274 273 274 273 273 273 273 273 273 273 273 272
299 298 298 296 295 296 296 294 293 290 289 289 287 289 289 290 288 291 292 293 293 294 295 294 290 291 296 291 294 288 292 287 279 274 277 279 275 273 274 276 275 275 275 275 274 274 274 274 274 273 273 273 273 273
296 297 297 296 295 294 294 293 291 289 287 287 285 281 281 283 284 289 289 290 290 296 292 294 288 296 291 286 287 282 278 274 273 275 277 273 275 274 275 277 277 276 276 276 275 275 275 274 274 273 273 272 272 272
295 295 295 293 293 292 290 289 289 288 287 283 284 282 277 280 278 278 285 287 290 292 288 291 287 283 279 284 281 275 277 274 273 276 276 276 276 277 278 278 278 277 277 277 277 276 275 275 276 275 274 273 272 272
293 294 295 292 292 290 290 288 287 286 284 280 281 281 280 277 278 279 283 286 285 285 286 284 281 280 277 274 272 270 271 273 279 277 278 279 279 279 280 280 280 280 279 278 278 276 276 276 275 275 275 274 273 272
292 292 292 292 290 290 289 288 287 286 282 283 281 281 280 280 280 278 282 284 285 285 282 279 276 277 276 277 272 274 275 279 280 280 279 279 279 280 279 279 278 278 277 276 275 274 274 274 274 274 274 274 273 272
291 291 290 290 290 289 287 287 286 285 286 282 281 281 279 282 280 280 281 282 282 281 279 276 277 280 279 278 279 279 279 279 276 277 278 278 279 279 279 278 278 277 275 274 273 273 273 273 273 272 272 271 271 271
292 292 291 290 289 288 288 286 286 285 286 286 286 285 281 278 277 279 281 280 279 277 277 278 279 281 280 279 280 280 280 280 279 279 279 279 277 276 275 276 276 273 273 273 273 273 273 272 272 271 271 270 270 270
293 293 292 290 286 283 285 288 285 287 284 286 285 284 280 280 280 282 279 279 276 277 279 280 280 280 279 280 280 279 279 279 277 276 276 275 275 275 274 274 275 274 272 272 272 272 271 271 271 271 271 271 270 270
291 289 288 286 284 285 284 285 288 288 287 286 284 284 282 281 281 277 277 277 276 279 280 280 279 278 278 277 276 276 277 277 274 274 274 274 272 272 272 272 272 273 273 272 272 271 270 270 270 270 270 270 269 269
289 285 286 286 285 281 282 283 285 285 284 282 280 280 280 280 276 274 276 275 276 275 277 277 276 276 272 268 273 275 276 276 274 272 273 274 272 271 270 270 271 271 272 271 271 271 270 270 270 269 269 269 268 268
283 282 285 285 286 285 285 281 279 279 277 279 277 280 279 274 275 276 278 272 274 272 273 274 274 274 274 275 272 273 274 275 275 272 272 273 273 273 270 268 269 269 269 269 269 270 270 269 269 268 268 268 268 268
280 280 284 281 283 285 280 278 280 279 277 279 278 277 273 273 273 277 277 273 274 278 280 278 277 275 273 273 273 274 274 274 274 271 270 271 272 272 272 270 269 269 268 267 268 268 268 267 267 267 267 267 267 267
279 278 280 274 274 275 271 270 271 273 275 279 278 272 272 273 275 274 272 274 276 277 277 276 276 275 273 273 273 273 272 271 270 269 269 269 268 268 268 268 267 267 267 267 267 266 266 266 265 265 265 265 265 265
275 273 275 270 270 272 274 271 272 275 276 273 269 269 272 273 271 272 273 274 274 276 272 271 270 272 271 271 271 271 271 271 270 261 260 258 266 267 267 267 267 266 266 266 266 266 266 266 265 265 265 266 266 265
276 271 272 267 269 272 269 268 268 268 272 271 273 274 272 271 272 273 274 274 273 272 271 271 271 272 271 271 269 269 270 270 271 271 261 258 267 267 266 266 266 265 265 265 265 265 265 265 264 264 264 264 264 264
274 270 271 272 272 269 269 269 271 271 265 266 267 269 269 271 273 272 273 273 274 273 272 270 270 271 271 269 269 268 267 268 269 269 269 268 267 266 265 265 264 264 264 264 264 264 264 264 264 264 263 263 263 262
267 266 270 271 272 269 265 266 268 268 267 268 269 264 265 266 267 269 271 272 273 273 273 272 272 271 271 271 270 270 270 268 267 267 266 266 266 265 265 264 264 264 264 263 263 263 264 263 263 263 263 262 262 261
266 264 265 270 272 272 271 271 272 272 270 271 270 268 263 265 268 268 271 272 274 274 273 272 271 270 269 268 268 267 266 265 265 264 264 264 264 264 264 264 263 263 263 263 263 263 262 262 262 261 261 261 261 260